Wetterdaten: Dienstag, 10.01.2023
Datum Zeit Temp. Aussen Temp. o. S. Temp +5cm Feuchte Auss Luftdruck Regen Sonnenschein Regendauer Solar Windben Empfang
10.01.2023 00:00 5,4 C 5,0 C 1,7 C 94 % 1011,3 hPa 0,0 l/m 0 min 0 min 0 W/m 6,4 km/h (2 Bft) 95,74 %
10.01.2023 00:02 5,4 C 5,0 C 1,7 C 94 % 1011,3 hPa 0,0 l/m 0 min 0 min 0 W/m 3,2 km/h (1 Bft) 5,00 %
10.01.2023 00:04 5,4 C 5,0 C 1,7 C 94 % 1011,4 hPa 0,0 l/m 0 min 0 min 0 W/m 6,4 km/h (2 Bft) 95,24 %
10.01.2023 00:07 5,4 C 4,4 C 1,7 C 94 % 1011,3 hPa 0,0 l/m 0 min 0 min 0 W/m 9,7 km/h (2 Bft) 100,00 %
10.01.2023 00:08 5,4 C 4,4 C 1,7 C 94 % 1011,3 hPa 0,0 l/m 0 min 0 min 0 W/m 6,4 km/h (2 Bft) 100,00 %
10.01.2023 00:12 5,4 C 4,4 C 1,7 C 94 % 1011,4 hPa 0,0 l/m 0 min 0 min 0 W/m 6,4 km/h (2 Bft) 100,00 %
10.01.2023 00:14 5,4 C 5,0 C 1,7 C 94 % 1011,5 hPa 0,0 l/m 0 min 0 min 0 W/m 6,4 km/h (2 Bft) 83,33 %
10.01.2023 00:20 5,5 C 5,0 C 1,7 C 94 % 1011,6 hPa 0,0 l/m 0 min 0 min 0 W/m 6,4 km/h (2 Bft) 100,00 %
10.01.2023 00:22 5,5 C 5,0 C 1,7 C 94 % 1011,6 hPa 0,0 l/m 0 min 0 min 0 W/m 6,4 km/h (2 Bft) 93,62 %
10.01.2023 00:24 5,5 C 5,0 C 1,7 C 94 % 1011,8 hPa 0,0 l/m 0 min 0 min 0 W/m 9,7 km/h (2 Bft) 100,00 %
10.01.2023 00:26 5,5 C 5,0 C 1,7 C 94 % 1011,8 hPa 0,0 l/m 0 min 0 min 0 W/m 9,7 km/h (2 Bft) 97,87 %
10.01.2023 00:28 5,6 C 5,0 C 1,7 C 94 % 1011,8 hPa 0,0 l/m 0 min 0 min 0 W/m 6,4 km/h (2 Bft) 95,74 %
10.01.2023 00:30 5,6 C 5,0 C 1,7 C 94 % 1011,8 hPa 0,0 l/m 0 min 0 min 0 W/m 3,2 km/h (1 Bft) 100,00 %
10.01.2023 00:32 5,6 C 5,0 C 1,7 C 94 % 1011,8 hPa 0,0 l/m 0 min 0 min 0 W/m 9,7 km/h (2 Bft) 97,83 %
10.01.2023 00:34 5,6 C 5,0 C 1,7 C 94 % 1011,8 hPa 0,0 l/m 0 min 0 min 0 W/m 12,9 km/h (3 Bft) 97,87 %
10.01.2023 00:36 5,6 C 5,0 C 1,7 C 94 % 1011,9 hPa 0,0 l/m 0 min 0 min 0 W/m 12,9 km/h (3 Bft) 97,87 %
10.01.2023 00:38 5,5 C 5,0 C 1,7 C 94 % 1012,0 hPa 0,0 l/m 0 min 0 min 0 W/m 12,9 km/h (3 Bft) 97,87 %
10.01.2023 00:40 5,5 C 4,4 C 1,7 C 94 % 1012,0 hPa 0,0 l/m 0 min 0 min 0 W/m 6,4 km/h (2 Bft) 97,87 %
10.01.2023 00:42 5,5 C 4,4 C 1,7 C 94 % 1012,1 hPa 0,0 l/m 0 min 0 min 0 W/m 6,4 km/h (2 Bft) 97,87 %
10.01.2023 00:44 5,5 C 4,4 C 1,7 C 94 % 1012,2 hPa 0,0 l/m 0 min 0 min 0 W/m 12,9 km/h (3 Bft) 97,87 %
10.01.2023 00:46 5,5 C 4,4 C 1,7 C 94 % 1012,2 hPa 0,0 l/m 0 min 0 min 0 W/m 9,7 km/h (2 Bft) 97,83 %
10.01.2023 00:48 5,4 C 5,0 C 1,7 C 95 % 1012,3 hPa 0,0 l/m 0 min 0 min 0 W/m 16,1 km/h (3 Bft) 97,87 %
10.01.2023 00:50 5,5 C 5,0 C 1,7 C 95 % 1012,4 hPa 0,0 l/m 0 min 0 min 0 W/m 12,9 km/h (3 Bft) 95,74 %
10.01.2023 00:52 5,5 C 5,0 C 1,7 C 95 % 1012,4 hPa 0,0 l/m 0 min 0 min 0 W/m 6,4 km/h (2 Bft) 97,87 %
10.01.2023 00:54 5,5 C 5,0 C 1,7 C 95 % 1012,4 hPa 0,0 l/m 0 min 0 min 0 W/m 12,9 km/h (3 Bft) 97,87 %
10.01.2023 00:56 5,6 C 5,0 C 1,7 C 94 % 1012,5 hPa 0,0 l/m 0 min 0 min 0 W/m 12,9 km/h (3 Bft) 97,87 %
10.01.2023 00:58 5,6 C 5,0 C 1,7 C 94 % 1012,5 hPa 0,0 l/m 0 min 0 min 0 W/m 12,9 km/h (3 Bft) 97,87 %
10.01.2023 01:00 5,6 C 5,0 C 1,7 C 94 % 1012,6 hPa 0,0 l/m 0 min 0 min 0 W/m 12,9 km/h (3 Bft) 97,83 %
10.01.2023 01:02 5,6 C 5,0 C 1,7 C 94 % 1012,6 hPa 0,0 l/m 0 min 0 min 0 W/m 12,9 km/h (3 Bft) 97,87 %
10.01.2023 01:04 5,6 C 5,0 C 1,7 C 94 % 1012,7 hPa 0,0 l/m 0 min 0 min 0 W/m 16,1 km/h (3 Bft) 97,87 %
10.01.2023 01:06 5,7 C 5,0 C 1,7 C 94 % 1012,7 hPa 0,0 l/m 0 min 0 min 0 W/m 6,4 km/h (2 Bft) 97,87 %
10.01.2023 01:08 5,7 C 5,0 C 1,7 C 94 % 1012,8 hPa 0,0 l/m 0 min 0 min 0 W/m 6,4 km/h (2 Bft) 95,74 %
10.01.2023 01:10 5,7 C 5,0 C 1,7 C 94 % 1012,8 hPa 0,0 l/m 0 min 0 min 0 W/m 12,9 km/h (3 Bft) 95,74 %
10.01.2023 01:12 5,7 C 5,0 C 1,7 C 94 % 1012,8 hPa 0,0 l/m 0 min 0 min 0 W/m 12,9 km/h (3 Bft) 97,83 %
10.01.2023 01:14 5,7 C 5,0 C 1,7 C 94 % 1013,0 hPa 0,0 l/m 0 min 0 min 0 W/m 12,9 km/h (3 Bft) 97,87 %
10.01.2023 01:16 5,7 C 5,0 C 1,7 C 94 % 1012,9 hPa 0,0 l/m 0 min 0 min 0 W/m 19,3 km/h (3 Bft) 100,00 %
10.01.2023 01:18 5,7 C 5,0 C 1,7 C 94 % 1012,9 hPa 0,0 l/m 0 min 0 min 0 W/m 12,9 km/h (3 Bft) 97,87 %
10.01.2023 01:20 5,7 C 5,0 C 1,7 C 94 % 1013,0 hPa 0,0 l/m 0 min 0 min 0 W/m 12,9 km/h (3 Bft) 97,87 %
10.01.2023 01:22 5,7 C 5,0 C 1,7 C 94 % 1013,0 hPa 0,0 l/m 0 min 0 min 0 W/m 16,1 km/h (3 Bft) 97,87 %
10.01.2023 01:24 5,7 C 5,0 C 1,7 C 94 % 1013,0 hPa 0,0 l/m 0 min 0 min 0 W/m 12,9 km/h (3 Bft) 97,87 %
10.01.2023 01:26 5,7 C 5,0 C 2,2 C 94 % 1013,1 hPa 0,0 l/m 0 min 0 min 0 W/m 16,1 km/h (3 Bft) 97,83 %
10.01.2023 01:28 5,7 C 5,0 C 2,2 C 94 % 1013,2 hPa 0,0 l/m 0 min 0 min 0 W/m 12,9 km/h (3 Bft) 97,87 %
10.01.2023 01:30 5,8 C 5,0 C 2,2 C 94 % 1013,1 hPa 0,0 l/m 0 min 0 min 0 W/m 12,9 km/h (3 Bft) 97,87 %
10.01.2023 01:32 5,8 C 5,0 C 2,2 C 94 % 1013,1 hPa 0,0 l/m 0 min 0 min 0 W/m 6,4 km/h (2 Bft) 95,74 %
10.01.2023 01:34 5,8 C 5,0 C 2,2 C 94 % 1013,2 hPa 0,0 l/m 0 min 0 min 0 W/m 12,9 km/h (3 Bft) 97,87 %
10.01.2023 01:36 5,8 C 5,0 C 2,2 C 94 % 1013,2 hPa 0,0 l/m 0 min 0 min 0 W/m 19,3 km/h (3 Bft) 95,74 %
10.01.2023 01:38 5,8 C 5,0 C 2,2 C 94 % 1013,2 hPa 0,0 l/m 0 min 0 min 0 W/m 12,9 km/h (3 Bft) 97,87 %
10.01.2023 01:40 5,8 C 5,0 C 2,2 C 94 % 1013,2 hPa 0,0 l/m 0 min 0 min 0 W/m 12,9 km/h (3 Bft) 95,65 %
10.01.2023 01:42 5,7 C 5,0 C 2,2 C 94 % 1013,3 hPa 0,0 l/m 0 min 0 min 0 W/m 12,9 km/h (3 Bft) 97,87 %
10.01.2023 01:44 5,7 C 5,0 C 2,2 C 94 % 1013,3 hPa 0,0 l/m 0 min 0 min 0 W/m 16,1 km/h (3 Bft) 97,87 %
10.01.2023 01:46 5,7 C 5,0 C 2,2 C 94 % 1013,4 hPa 0,0 l/m 0 min 0 min 0 W/m 16,1 km/h (3 Bft) 100,00 %
10.01.2023 01:48 5,7 C 5,0 C 2,2 C 93 % 1013,4 hPa 0,0 l/m 0 min 0 min 0 W/m 16,1 km/h (3 Bft) 100,00 %
10.01.2023 01:50 5,7 C 5,0 C 2,2 C 93 % 1013,4 hPa 0,0 l/m 0 min 0 min 0 W/m 16,1 km/h (3 Bft) 95,74 %
10.01.2023 01:52 5,7 C 5,0 C 2,2 C 93 % 1013,6 hPa 0,0 l/m 0 min 0 min 0 W/m 12,9 km/h (3 Bft) 97,87 %
10.01.2023 01:54 5,7 C 5,0 C 2,2 C 93 % 1013,5 hPa 0,0 l/m 0 min 0 min 0 W/m 12,9 km/h (3 Bft) 100,00 %
10.01.2023 01:56 5,7 C 5,0 C 2,2 C 93 % 1013,6 hPa 0,0 l/m 0 min 0 min 0 W/m 12,9 km/h (3 Bft) 100,00 %
10.01.2023 01:58 5,7 C 5,0 C 2,2 C 93 % 1013,6 hPa 0,0 l/m 0 min 0 min 0 W/m 12,9 km/h (3 Bft) 100,00 %
10.01.2023 02:00 5,7 C 5,0 C 2,2 C 93 % 1013,7 hPa 0,0 l/m 0 min 0 min 0 W/m 12,9 km/h (3 Bft) 100,00 %
10.01.2023 02:02 5,7 C 5,0 C 2,2 C 93 % 1013,7 hPa 0,0 l/m 0 min 0 min 0 W/m 3,2 km/h (1 Bft) 97,87 %
10.01.2023 02:04 5,7 C 5,0 C 2,2 C 93 % 1013,8 hPa 0,0 l/m 0 min 0 min 0 W/m 6,4 km/h (2 Bft) 100,00 %
10.01.2023 02:06 5,7 C 5,0 C 2,2 C 93 % 1014,0 hPa 0,0 l/m 0 min 0 min 0 W/m 19,3 km/h (3 Bft) 100,00 %
10.01.2023 02:08 5,7 C 5,0 C 2,2 C 93 % 1014,0 hPa 0,0 l/m 0 min 0 min 0 W/m 12,9 km/h (3 Bft) 100,00 %
10.01.2023 02:10 5,7 C 5,0 C 2,2 C 93 % 1014,0 hPa 0,0 l/m 0 min 0 min 0 W/m 12,9 km/h (3 Bft) 100,00 %
10.01.2023 02:14 5,7 C 5,0 C 2,2 C 93 % 1014,1 hPa 0,0 l/m 0 min 0 min 0 W/m 16,1 km/h (3 Bft) 100,00 %
10.01.2023 02:16 5,7 C 5,0 C 2,2 C 93 % 1014,1 hPa 0,0 l/m 0 min 0 min 0 W/m 12,9 km/h (3 Bft) 95,74 %
10.01.2023 02:18 5,7 C 5,0 C 2,2 C 93 % 1014,2 hPa 0,0 l/m 0 min 0 min 0 W/m 6,4 km/h (2 Bft) 100,00 %
10.01.2023 02:20 5,7 C 5,0 C 2,2 C 93 % 1014,3 hPa 0,0 l/m 0 min 0 min 0 W/m 12,9 km/h (3 Bft) 98,15 %
10.01.2023 02:22 5,7 C 5,0 C 2,2 C 93 % 1014,4 hPa 0,0 l/m 0 min 0 min 0 W/m 9,7 km/h (2 Bft) 100,00 %
10.01.2023 02:24 5,8 C 5,0 C 2,2 C 93 % 1014,4 hPa 0,0 l/m 0 min 0 min 0 W/m 12,9 km/h (3 Bft) 100,00 %
10.01.2023 02:26 5,8 C 5,0 C 2,2 C 93 % 1014,3 hPa 0,0 l/m 0 min 0 min 0 W/m 6,4 km/h (2 Bft) 100,00 %
10.01.2023 02:28 5,8 C 5,0 C 2,2 C 93 % 1014,4 hPa 0,0 l/m 0 min 0 min 0 W/m 12,9 km/h (3 Bft) 100,00 %
10.01.2023 02:30 5,8 C 5,0 C 2,2 C 93 % 1014,5 hPa 0,0 l/m 0 min 0 min 0 W/m 12,9 km/h (3 Bft) 100,00 %
10.01.2023 02:32 5,8 C 5,0 C 2,2 C 93 % 1014,5 hPa 0,0 l/m 0 min 0 min 0 W/m 6,4 km/h (2 Bft) 95,65 %
10.01.2023 02:34 5,8 C 5,0 C 2,2 C 93 % 1014,5 hPa 0,0 l/m 0 min 0 min 0 W/m 16,1 km/h (3 Bft) 95,74 %
10.01.2023 02:36 5,8 C 5,0 C 2,2 C 92 % 1014,5 hPa 0,0 l/m 0 min 0 min 0 W/m 9,7 km/h (2 Bft) 95,74 %
10.01.2023 02:38 5,7 C 5,0 C 2,2 C 92 % 1014,5 hPa 0,0 l/m 0 min 0 min 0 W/m 9,7 km/h (2 Bft) 97,87 %
10.01.2023 02:40 5,7 C 5,0 C 2,2 C 92 % 1014,5 hPa 0,0 l/m 0 min 0 min 0 W/m 9,7 km/h (2 Bft) 95,74 %
10.01.2023 02:42 5,7 C 5,0 C 2,2 C 92 % 1014,6 hPa 0,0 l/m 0 min 0 min 0 W/m 9,7 km/h (2 Bft) 97,87 %
10.01.2023 02:44 5,7 C 5,0 C 2,2 C 92 % 1014,6 hPa 0,0 l/m 0 min 0 min 0 W/m 12,9 km/h (3 Bft) 97,83 %
10.01.2023 02:46 5,7 C 5,0 C 2,2 C 92 % 1014,7 hPa 0,0 l/m 0 min 0 min 0 W/m 12,9 km/h (3 Bft) 95,74 %
10.01.2023 02:48 5,7 C 5,0 C 2,2 C 92 % 1014,6 hPa 0,0 l/m 0 min 0 min 0 W/m 6,4 km/h (2 Bft) 97,87 %
10.01.2023 02:50 5,7 C 5,0 C 2,2 C 92 % 1014,7 hPa 0,0 l/m 0 min 0 min 0 W/m 6,4 km/h (2 Bft) 95,74 %
10.01.2023 02:52 5,6 C 4,4 C 1,7 C 92 % 1014,8 hPa 0,0 l/m 0 min 0 min 0 W/m 12,9 km/h (3 Bft) 97,87 %
10.01.2023 02:54 5,6 C 4,4 C 1,7 C 92 % 1014,8 hPa 0,0 l/m 0 min 0 min 0 W/m 6,4 km/h (2 Bft) 95,74 %
10.01.2023 02:56 5,5 C 4,4 C 1,7 C 92 % 1014,7 hPa 0,0 l/m 0 min 0 min 0 W/m 6,4 km/h (2 Bft) 93,62 %
10.01.2023 02:58 5,5 C 4,4 C 1,7 C 92 % 1014,8 hPa 0,0 l/m 0 min 0 min 0 W/m 6,4 km/h (2 Bft) 95,74 %
10.01.2023 03:00 5,4 C 4,4 C 1,7 C 92 % 1014,9 hPa 0,0 l/m 0 min 0 min 0 W/m 16,1 km/h (3 Bft) 94,29 %
10.01.2023 03:02 5,4 C 4,4 C 1,7 C 92 % 1014,8 hPa 0,0 l/m 0 min 0 min 0 W/m 12,9 km/h (3 Bft) 93,75 %
10.01.2023 03:04 5,4 C 4,4 C 1,7 C 92 % 1014,8 hPa 0,0 l/m 0 min 0 min 0 W/m 19,3 km/h (3 Bft) 95,74 %
10.01.2023 03:06 5,3 C 4,4 C 1,7 C 92 % 1014,8 hPa 0,0 l/m 0 min 0 min 0 W/m 12,9 km/h (3 Bft) 93,48 %
10.01.2023 03:08 5,3 C 4,4 C 1,7 C 92 % 1014,8 hPa 0,0 l/m 0 min 0 min 0 W/m 9,7 km/h (2 Bft) 89,36 %
10.01.2023 03:10 5,3 C 4,4 C 1,7 C 92 % 1014,8 hPa 0,0 l/m 0 min 0 min 0 W/m 12,9 km/h (3 Bft) 93,62 %
10.01.2023 03:12 5,2 C 4,4 C 1,7 C 92 % 1014,9 hPa 0,0 l/m 0 min 0 min 0 W/m 12,9 km/h (3 Bft) 91,49 %
10.01.2023 03:14 5,2 C 4,4 C 1,7 C 92 % 1014,9 hPa 0,0 l/m 0 min 0 min 0 W/m 9,7 km/h (2 Bft) 91,49 %
10.01.2023 03:16 5,2 C 4,4 C 1,7 C 92 % 1014,9 hPa 0,0 l/m 0 min 0 min 0 W/m 9,7 km/h (2 Bft) 91,49 %
10.01.2023 03:18 5,1 C 3,9 C 1,7 C 92 % 1015,1 hPa 0,0 l/m 0 min 0 min 0 W/m 6,4 km/h (2 Bft) 93,48 %
10.01.2023 03:20 5,1 C 3,9 C 1,7 C 92 % 1015,1 hPa 0,0 l/m 0 min 0 min 0 W/m 6,4 km/h (2 Bft) 93,62 %
10.01.2023 03:22 5,1 C 3,9 C 1,7 C 92 % 1015,1 hPa 0,0 l/m 0 min 0 min 0 W/m 12,9 km/h (3 Bft) 93,62 %
10.01.2023 03:24 5,1 C 3,9 C 1,7 C 92 % 1015,1 hPa 0,0 l/m 0 min 0 min 0 W/m 6,4 km/h (2 Bft) 91,49 %
10.01.2023 03:26 5,0 C 3,9 C 1,1 C 92 % 1015,1 hPa 0,0 l/m 0 min 0 min 0 W/m 9,7 km/h (2 Bft) 93,62 %
10.01.2023 03:28 4,9 C 3,9 C 1,1 C 92 % 1015,1 hPa 0,0 l/m 0 min 0 min 0 W/m 12,9 km/h (3 Bft) 93,62 %
10.01.2023 03:30 4,9 C 3,9 C 1,1 C 92 % 1015,1 hPa 0,0 l/m 0 min 0 min 0 W/m 12,9 km/h (3 Bft) 95,74 %
10.01.2023 03:32 4,9 C 3,9 C 1,1 C 92 % 1015,2 hPa 0,0 l/m 0 min 0 min 0 W/m 9,7 km/h (2 Bft) 97,83 %
10.01.2023 03:34 4,9 C 3,9 C 1,7 C 92 % 1015,3 hPa 0,0 l/m 0 min 0 min 0 W/m 12,9 km/h (3 Bft) 97,87 %
10.01.2023 03:36 4,9 C 4,4 C 1,7 C 92 % 1015,3 hPa 0,0 l/m 0 min 0 min 0 W/m 9,7 km/h (2 Bft) 97,87 %
10.01.2023 03:38 4,9 C 4,4 C 1,7 C 92 % 1015,3 hPa 0,0 l/m 0 min 0 min 0 W/m 12,9 km/h (3 Bft) 97,87 %
10.01.2023 03:40 4,9 C 4,4 C 1,7 C 92 % 1015,3 hPa 0,0 l/m 0 min 0 min 0 W/m 12,9 km/h (3 Bft) 100,00 %
10.01.2023 03:42 4,9 C 3,9 C 1,7 C 93 % 1015,2 hPa 0,0 l/m 0 min 0 min 0 W/m 12,9 km/h (3 Bft) 57,45 %
10.01.2023 03:44 4,9 C 3,9 C 1,1 C 93 % 1015,2 hPa 0,0 l/m 0 min 0 min 0 W/m 12,9 km/h (3 Bft) 100,00 %
10.01.2023 03:46 4,8 C 3,9 C 1,1 C 92 % 1015,3 hPa 0,0 l/m 0 min 0 min 0 W/m 16,1 km/h (3 Bft) 97,83 %
10.01.2023 03:48 4,8 C 3,9 C 1,1 C 92 % 1015,3 hPa 0,0 l/m 0 min 0 min 0 W/m 19,3 km/h (3 Bft) 100,00 %
10.01.2023 03:50 4,8 C 3,9 C 1,1 C 92 % 1015,3 hPa 0,0 l/m 0 min 0 min 0 W/m 9,7 km/h (2 Bft) 100,00 %
10.01.2023 03:52 4,8 C 3,9 C 1,1 C 92 % 1015,2 hPa 0,0 l/m 0 min 0 min 0 W/m 16,1 km/h (3 Bft) 100,00 %
10.01.2023 03:54 4,8 C 3,9 C 1,1 C 92 % 1015,2 hPa 0,0 l/m 0 min 0 min 0 W/m 19,3 km/h (3 Bft) 100,00 %
10.01.2023 03:56 4,8 C 3,9 C 1,1 C 92 % 1015,2 hPa 0,0 l/m 0 min 0 min 0 W/m 16,1 km/h (3 Bft) 100,00 %
10.01.2023 03:58 4,7 C 3,9 C 1,1 C 92 % 1015,3 hPa 0,0 l/m 0 min 0 min 0 W/m 9,7 km/h (2 Bft) 100,00 %
10.01.2023 04:00 4,7 C 3,9 C 1,1 C 92 % 1015,3 hPa 0,0 l/m 0 min 0 min 0 W/m 6,4 km/h (2 Bft) 100,00 %
10.01.2023 04:02 4,7 C 3,9 C 1,1 C 92 % 1015,3 hPa 0,0 l/m 0 min 0 min 0 W/m 12,9 km/h (3 Bft) 95,74 %
10.01.2023 04:04 4,7 C 3,9 C 1,1 C 92 % 1015,3 hPa 0,0 l/m 0 min 0 min 0 W/m 9,7 km/h (2 Bft) 97,87 %
10.01.2023 04:06 4,7 C 3,9 C 1,1 C 92 % 1015,4 hPa 0,0 l/m 0 min 0 min 0 W/m 12,9 km/h (3 Bft) 97,87 %
10.01.2023 04:08 4,7 C 3,9 C 1,1 C 92 % 1015,4 hPa 0,0 l/m 0 min 0 min 0 W/m 25,7 km/h (4 Bft) 100,00 %
10.01.2023 04:10 4,7 C 3,9 C 1,1 C 92 % 1015,4 hPa 0,0 l/m 0 min 0 min 0 W/m 19,3 km/h (3 Bft) 100,00 %
10.01.2023 04:12 4,6 C 3,9 C 1,1 C 93 % 1015,4 hPa 0,0 l/m 0 min 0 min 0 W/m 16,1 km/h (3 Bft) 100,00 %
10.01.2023 04:14 4,6 C 3,9 C 1,1 C 92 % 1015,5 hPa 0,0 l/m 0 min 0 min 0 W/m 16,1 km/h (3 Bft) 100,00 %
10.01.2023 04:16 4,6 C 3,9 C 1,1 C 92 % 1015,6 hPa 0,0 l/m 0 min 0 min 0 W/m 12,9 km/h (3 Bft) 100,00 %
10.01.2023 04:18 4,6 C 3,9 C 1,1 C 93 % 1015,6 hPa 0,0 l/m 0 min 0 min 0 W/m 9,7 km/h (2 Bft) 100,00 %
10.01.2023 04:20 4,6 C 3,9 C 1,1 C 92 % 1015,5 hPa 0,0 l/m 0 min 0 min 0 W/m 6,4 km/h (2 Bft) 100,00 %
10.01.2023 04:22 4,6 C 3,9 C 1,1 C 93 % 1015,5 hPa 0,0 l/m 0 min 0 min 0 W/m 12,9 km/h (3 Bft) 97,87 %
10.01.2023 04:24 4,6 C 3,9 C 1,1 C 93 % 1015,6 hPa 0,0 l/m 0 min 0 min 0 W/m 9,7 km/h (2 Bft) 97,87 %
10.01.2023 04:26 4,5 C 3,9 C 1,1 C 93 % 1015,6 hPa 0,0 l/m 0 min 0 min 0 W/m 12,9 km/h (3 Bft) 97,83 %
10.01.2023 04:28 4,5 C 3,9 C 1,1 C 93 % 1015,6 hPa 0,0 l/m 0 min 0 min 0 W/m 16,1 km/h (3 Bft) 100,00 %
10.01.2023 04:30 4,5 C 3,9 C 1,1 C 93 % 1015,6 hPa 0,0 l/m 0 min 0 min 0 W/m 6,4 km/h (2 Bft) 100,00 %
10.01.2023 04:32 4,5 C 3,9 C 1,1 C 93 % 1015,6 hPa 0,0 l/m 0 min 0 min 0 W/m 9,7 km/h (2 Bft) 100,00 %
10.01.2023 04:34 4,4 C 3,9 C 1,1 C 92 % 1015,6 hPa 0,0 l/m 0 min 0 min 0 W/m 3,2 km/h (1 Bft) 100,00 %
10.01.2023 04:36 4,4 C 3,3 C 1,1 C 92 % 1015,7 hPa 0,0 l/m 0 min 0 min 0 W/m 6,4 km/h (2 Bft) 100,00 %
10.01.2023 04:38 4,4 C 3,3 C 1,1 C 92 % 1015,7 hPa 0,0 l/m 0 min 0 min 0 W/m 3,2 km/h (1 Bft) 100,00 %
10.01.2023 04:40 4,4 C 3,3 C 1,1 C 92 % 1015,8 hPa 0,0 l/m 0 min 0 min 0 W/m 6,4 km/h (2 Bft) 97,87 %
10.01.2023 04:42 4,4 C 3,3 C 1,1 C 92 % 1015,8 hPa 0,0 l/m 0 min 0 min 0 W/m 6,4 km/h (2 Bft) 100,00 %
10.01.2023 04:44 4,4 C 3,9 C 1,1 C 92 % 1015,8 hPa 0,0 l/m 0 min 0 min 0 W/m 9,7 km/h (2 Bft) 100,00 %
10.01.2023 04:46 4,4 C 3,9 C 1,1 C 93 % 1015,9 hPa 0,0 l/m 0 min 0 min 0 W/m 9,7 km/h (2 Bft) 100,00 %
10.01.2023 04:48 4,4 C 3,9 C 1,1 C 93 % 1015,9 hPa 0,0 l/m 0 min 0 min 0 W/m 6,4 km/h (2 Bft) 100,00 %
10.01.2023 04:50 4,4 C 3,9 C 1,1 C 93 % 1016,0 hPa 0,0 l/m 0 min 0 min 0 W/m 9,7 km/h (2 Bft) 95,74 %
10.01.2023 04:52 4,4 C 3,9 C 1,1 C 93 % 1016,0 hPa 0,0 l/m 0 min 0 min 0 W/m 9,7 km/h (2 Bft) 95,65 %
10.01.2023 04:54 4,4 C 3,9 C 1,1 C 93 % 1016,0 hPa 0,0 l/m 0 min 0 min 0 W/m 9,7 km/h (2 Bft) 95,74 %
10.01.2023 04:56 4,5 C 3,9 C 1,1 C 93 % 1016,1 hPa 0,0 l/m 0 min 0 min 0 W/m 6,4 km/h (2 Bft) 89,36 %
10.01.2023 04:58 4,5 C 3,9 C 1,1 C 93 % 1016,2 hPa 0,0 l/m 0 min 0 min 0 W/m 6,4 km/h (2 Bft) 97,87 %
10.01.2023 05:00 4,5 C 3,9 C 1,1 C 93 % 1016,3 hPa 0,0 l/m 0 min 0 min 0 W/m 12,9 km/h (3 Bft) 97,87 %
10.01.2023 05:02 4,5 C 3,9 C 1,1 C 93 % 1016,3 hPa 0,0 l/m 0 min 0 min 0 W/m 9,7 km/h (2 Bft) 95,74 %
10.01.2023 05:04 4,6 C 3,9 C 1,1 C 93 % 1016,3 hPa 0,0 l/m 0 min 0 min 0 W/m 6,4 km/h (2 Bft) 93,62 %
10.01.2023 05:06 4,6 C 3,9 C 1,1 C 93 % 1016,2 hPa 0,0 l/m 0 min 0 min 0 W/m 9,7 km/h (2 Bft) 93,48 %
10.01.2023 05:08 4,6 C 3,9 C 1,1 C 93 % 1016,2 hPa 0,0 l/m 0 min 0 min 0 W/m 9,7 km/h (2 Bft) 97,87 %
10.01.2023 05:10 4,6 C 3,9 C 1,1 C 93 % 1016,2 hPa 0,0 l/m 0 min 0 min 0 W/m 6,4 km/h (2 Bft) 95,74 %
10.01.2023 05:12 4,6 C 3,9 C 1,1 C 93 % 1016,3 hPa 0,0 l/m 0 min 0 min 0 W/m 6,4 km/h (2 Bft) 93,62 %
10.01.2023 05:14 4,6 C 3,9 C 1,1 C 93 % 1016,2 hPa 0,0 l/m 0 min 0 min 0 W/m 12,9 km/h (3 Bft) 95,74 %
10.01.2023 05:16 4,6 C 3,9 C 1,1 C 93 % 1016,3 hPa 0,0 l/m 0 min 0 min 0 W/m 16,1 km/h (3 Bft) 95,74 %
10.01.2023 05:18 4,6 C 3,9 C 1,1 C 93 % 1016,3 hPa 0,0 l/m 0 min 0 min 0 W/m 16,1 km/h (3 Bft) 95,65 %
10.01.2023 05:20 4,6 C 3,9 C 1,7 C 93 % 1016,3 hPa 0,0 l/m 0 min 0 min 0 W/m 6,4 km/h (2 Bft) 93,62 %
10.01.2023 05:22 4,6 C 3,9 C 1,7 C 93 % 1016,3 hPa 0,0 l/m 0 min 0 min 0 W/m 19,3 km/h (3 Bft) 97,87 %
10.01.2023 05:24 4,6 C 3,9 C 1,7 C 93 % 1016,3 hPa 0,0 l/m 0 min 0 min 0 W/m 6,4 km/h (2 Bft) 97,87 %
10.01.2023 05:26 4,6 C 3,9 C 1,7 C 93 % 1016,3 hPa 0,0 l/m 0 min 0 min 0 W/m 9,7 km/h (2 Bft) 97,87 %
10.01.2023 05:28 4,7 C 3,9 C 1,7 C 93 % 1016,3 hPa 0,0 l/m 0 min 0 min 0 W/m 6,4 km/h (2 Bft) 97,87 %
10.01.2023 05:30 4,7 C 4,4 C 1,7 C 93 % 1016,3 hPa 0,0 l/m 0 min 0 min 0 W/m 6,4 km/h (2 Bft) 97,87 %
10.01.2023 05:32 4,7 C 4,4 C 1,7 C 93 % 1016,3 hPa 0,0 l/m 0 min 0 min 0 W/m 9,7 km/h (2 Bft) 97,83 %
10.01.2023 05:34 4,7 C 4,4 C 1,7 C 93 % 1016,3 hPa 0,0 l/m 0 min 0 min 0 W/m 12,9 km/h (3 Bft) 95,74 %
10.01.2023 05:36 4,8 C 4,4 C 1,7 C 93 % 1016,3 hPa 0,0 l/m 0 min 0 min 0 W/m 6,4 km/h (2 Bft) 95,74 %
10.01.2023 05:38 4,8 C 4,4 C 1,7 C 93 % 1016,4 hPa 0,0 l/m 0 min 0 min 0 W/m 6,4 km/h (2 Bft) 93,62 %
10.01.2023 05:40 4,8 C 4,4 C 1,7 C 93 % 1016,4 hPa 0,0 l/m 0 min 0 min 0 W/m 9,7 km/h (2 Bft) 95,74 %
10.01.2023 05:42 4,8 C 4,4 C 1,7 C 93 % 1016,4 hPa 0,0 l/m 0 min 0 min 0 W/m 9,7 km/h (2 Bft) 97,87 %
10.01.2023 05:44 4,8 C 4,4 C 1,7 C 92 % 1016,4 hPa 0,0 l/m 0 min 0 min 0 W/m 16,1 km/h (3 Bft) 95,74 %
10.01.2023 05:46 4,8 C 4,4 C 1,7 C 92 % 1016,3 hPa 0,0 l/m 0 min 0 min 0 W/m 12,9 km/h (3 Bft) 93,48 %
10.01.2023 05:48 4,8 C 4,4 C 1,7 C 92 % 1016,4 hPa 0,0 l/m 0 min 0 min 0 W/m 22,5 km/h (4 Bft) 95,74 %
10.01.2023 05:50 4,8 C 3,9 C 1,7 C 92 % 1016,4 hPa 0,0 l/m 0 min 0 min 0 W/m 16,1 km/h (3 Bft) 97,87 %
10.01.2023 05:52 4,8 C 3,9 C 1,7 C 92 % 1016,4 hPa 0,0 l/m 0 min 0 min 0 W/m 12,9 km/h (3 Bft) 97,87 %
10.01.2023 05:54 4,8 C 3,9 C 1,7 C 92 % 1016,4 hPa 0,0 l/m 0 min 0 min 0 W/m 12,9 km/h (3 Bft) 97,87 %
10.01.2023 05:56 4,8 C 3,9 C 1,7 C 92 % 1016,4 hPa 0,0 l/m 0 min 0 min 0 W/m 16,1 km/h (3 Bft) 95,74 %
10.01.2023 05:58 4,8 C 3,9 C 1,7 C 92 % 1016,5 hPa 0,0 l/m 0 min 0 min 0 W/m 16,1 km/h (3 Bft) 97,83 %
10.01.2023 06:00 4,8 C 3,9 C 1,7 C 92 % 1016,5 hPa 0,0 l/m 0 min 0 min 0 W/m 12,9 km/h (3 Bft) 97,87 %
10.01.2023 06:02 4,8 C 3,9 C 1,7 C 92 % 1016,5 hPa 0,0 l/m 0 min 0 min 0 W/m 19,3 km/h (3 Bft) 97,87 %
10.01.2023 06:04 4,8 C 3,9 C 1,7 C 92 % 1016,5 hPa 0,0 l/m 0 min 0 min 0 W/m 12,9 km/h (3 Bft) 95,74 %
10.01.2023 06:07 4,8 C 3,9 C 1,7 C 92 % 1016,6 hPa 0,0 l/m 0 min 0 min 0 W/m 22,5 km/h (4 Bft) 98,57 %
10.01.2023 06:08 4,7 C 3,9 C 1,7 C 92 % 1016,6 hPa 0,0 l/m 0 min 0 min 0 W/m 16,1 km/h (3 Bft) 95,83 %
10.01.2023 06:10 4,7 C 3,9 C 1,7 C 92 % 1016,6 hPa 0,0 l/m 0 min 0 min 0 W/m 19,3 km/h (3 Bft) 97,87 %
10.01.2023 06:12 4,7 C 3,9 C 1,7 C 92 % 1016,7 hPa 0,0 l/m 0 min 0 min 0 W/m 19,3 km/h (3 Bft) 97,83 %
10.01.2023 06:14 4,7 C 3,9 C 1,1 C 92 % 1016,7 hPa 0,0 l/m 0 min 0 min 0 W/m 12,9 km/h (3 Bft) 95,74 %
10.01.2023 06:16 4,7 C 3,9 C 1,1 C 92 % 1016,7 hPa 0,0 l/m 0 min 0 min 0 W/m 16,1 km/h (3 Bft) 97,87 %
10.01.2023 06:18 4,7 C 3,9 C 1,7 C 92 % 1016,8 hPa 0,0 l/m 0 min 0 min 0 W/m 22,5 km/h (4 Bft) 97,87 %
10.01.2023 06:20 4,7 C 3,9 C 1,7 C 92 % 1016,8 hPa 0,0 l/m 0 min 0 min 0 W/m 19,3 km/h (3 Bft) 95,74 %
10.01.2023 06:22 4,7 C 3,9 C 1,7 C 92 % 1016,7 hPa 0,0 l/m 0 min 0 min 0 W/m 16,1 km/h (3 Bft) 95,74 %
10.01.2023 06:24 4,7 C 3,9 C 1,7 C 92 % 1016,7 hPa 0,0 l/m 0 min 0 min 0 W/m 12,9 km/h (3 Bft) 97,87 %
10.01.2023 06:26 4,7 C 3,9 C 1,7 C 92 % 1016,8 hPa 0,0 l/m 0 min 0 min 0 W/m 19,3 km/h (3 Bft) 95,65 %
10.01.2023 06:28 4,7 C 3,9 C 1,7 C 92 % 1016,8 hPa 0,0 l/m 0 min 0 min 0 W/m 19,3 km/h (3 Bft) 93,62 %
10.01.2023 06:30 4,7 C 3,9 C 1,1 C 92 % 1016,8 hPa 0,0 l/m 0 min 0 min 0 W/m 12,9 km/h (3 Bft) 97,87 %
10.01.2023 06:32 4,7 C 3,9 C 1,1 C 92 % 1016,9 hPa 0,0 l/m 0 min 0 min 0 W/m 16,1 km/h (3 Bft) 97,87 %
10.01.2023 06:34 4,6 C 3,9 C 1,1 C 92 % 1017,0 hPa 0,0 l/m 0 min 0 min 0 W/m 12,9 km/h (3 Bft) 97,87 %
10.01.2023 06:36 4,6 C 3,9 C 1,1 C 92 % 1017,0 hPa 0,0 l/m 0 min 0 min 0 W/m 19,3 km/h (3 Bft) 93,62 %
10.01.2023 06:38 4,6 C 3,9 C 1,1 C 92 % 1017,0 hPa 0,0 l/m 0 min 0 min 0 W/m 16,1 km/h (3 Bft) 100,00 %
10.01.2023 06:40 4,6 C 3,9 C 1,1 C 92 % 1017,0 hPa 0,0 l/m 0 min 0 min 0 W/m 19,3 km/h (3 Bft) 100,00 %
10.01.2023 06:42 4,6 C 3,9 C 1,1 C 92 % 1017,0 hPa 0,0 l/m 0 min 0 min 0 W/m 16,1 km/h (3 Bft) 100,00 %
10.01.2023 06:44 4,6 C 3,9 C 1,1 C 92 % 1017,0 hPa 0,0 l/m 0 min 0 min 0 W/m 19,3 km/h (3 Bft) 95,74 %
10.01.2023 06:49 4,6 C 3,9 C 1,1 C 92 % 1016,9 hPa 0,0 l/m 0 min 0 min 0 W/m 22,5 km/h (4 Bft) 100,00 %
10.01.2023 06:50 4,6 C 3,9 C 1,1 C 92 % 1016,9 hPa 0,0 l/m 0 min 0 min 0 W/m 16,1 km/h (3 Bft) 95,83 %
10.01.2023 06:52 4,5 C 3,9 C 1,1 C 92 % 1017,0 hPa 0,0 l/m 0 min 0 min 0 W/m 12,9 km/h (3 Bft) 95,65 %
10.01.2023 06:54 4,5 C 3,9 C 1,1 C 92 % 1017,1 hPa 0,0 l/m 0 min 0 min 0 W/m 16,1 km/h (3 Bft) 95,74 %
10.01.2023 06:56 4,5 C 3,9 C 1,1 C 92 % 1017,1 hPa 0,0 l/m 0 min 0 min 0 W/m 16,1 km/h (3 Bft) 97,87 %
10.01.2023 06:58 4,4 C 3,3 C 1,1 C 92 % 1017,2 hPa 0,0 l/m 0 min 0 min 0 W/m 16,1 km/h (3 Bft) 97,87 %
10.01.2023 07:00 4,4 C 3,3 C 1,1 C 92 % 1017,2 hPa 0,0 l/m 0 min 0 min 0 W/m 12,9 km/h (3 Bft) 97,87 %
10.01.2023 07:02 4,4 C 3,3 C 1,1 C 92 % 1017,3 hPa 0,0 l/m 0 min 0 min 0 W/m 12,9 km/h (3 Bft) 97,87 %
10.01.2023 07:04 4,3 C 3,3 C 1,1 C 92 % 1017,3 hPa 0,0 l/m 0 min 0 min 0 W/m 16,1 km/h (3 Bft) 97,87 %
10.01.2023 07:06 4,3 C 3,3 C 1,1 C 92 % 1017,4 hPa 0,0 l/m 0 min 0 min 0 W/m 12,9 km/h (3 Bft) 97,83 %
10.01.2023 07:08 4,3 C 3,3 C 1,1 C 92 % 1017,4 hPa 0,0 l/m 0 min 0 min 0 W/m 9,7 km/h (2 Bft) 97,87 %
10.01.2023 07:10 4,3 C 3,3 C 1,1 C 92 % 1017,5 hPa 0,0 l/m 0 min 0 min 0 W/m 22,5 km/h (4 Bft) 97,87 %
10.01.2023 07:12 4,3 C 3,3 C 1,1 C 92 % 1017,5 hPa 0,0 l/m 0 min 0 min 0 W/m 16,1 km/h (3 Bft) 97,87 %
10.01.2023 07:14 4,3 C 3,3 C 1,1 C 92 % 1017,5 hPa 0,0 l/m 0 min 0 min 0 W/m 12,9 km/h (3 Bft) 97,87 %
10.01.2023 07:16 4,2 C 3,3 C 1,1 C 92 % 1017,3 hPa 0,0 l/m 0 min 0 min 0 W/m 16,1 km/h (3 Bft) 97,87 %
10.01.2023 07:18 4,2 C 3,3 C 1,1 C 92 % 1017,4 hPa 0,0 l/m 0 min 0 min 0 W/m 9,7 km/h (2 Bft) 97,87 %
10.01.2023 07:20 4,2 C 3,3 C 1,1 C 92 % 1017,4 hPa 0,0 l/m 0 min 0 min 0 W/m 9,7 km/h (2 Bft) 100,00 %
10.01.2023 07:22 4,2 C 3,3 C 1,1 C 92 % 1017,4 hPa 0,0 l/m 0 min 0 min 0 W/m 9,7 km/h (2 Bft) 97,87 %
10.01.2023 07:24 4,2 C 3,3 C 1,1 C 92 % 1017,5 hPa 0,0 l/m 0 min 0 min 0 W/m 12,9 km/h (3 Bft) 97,87 %
10.01.2023 07:26 4,2 C 3,3 C 1,1 C 92 % 1017,5 hPa 0,0 l/m 0 min 0 min 0 W/m 6,4 km/h (2 Bft) 100,00 %
10.01.2023 07:28 4,2 C 3,3 C 1,1 C 92 % 1017,6 hPa 0,0 l/m 0 min 0 min 0 W/m 6,4 km/h (2 Bft) 100,00 %
10.01.2023 07:30 4,2 C 3,3 C 1,1 C 92 % 1017,6 hPa 0,0 l/m 0 min 0 min 0 W/m 6,4 km/h (2 Bft) 100,00 %
10.01.2023 07:32 4,2 C 3,3 C 1,1 C 93 % 1017,6 hPa 0,0 l/m 0 min 0 min 0 W/m 12,9 km/h (3 Bft) 97,87 %
10.01.2023 07:34 4,2 C 3,3 C 1,1 C 93 % 1017,6 hPa 0,0 l/m 0 min 0 min 0 W/m 16,1 km/h (3 Bft) 95,65 %
10.01.2023 07:36 4,2 C 3,3 C 1,1 C 93 % 1017,5 hPa 0,0 l/m 0 min 0 min 0 W/m 12,9 km/h (3 Bft) 100,00 %
10.01.2023 07:38 4,2 C 3,3 C 1,1 C 93 % 1017,5 hPa 0,0 l/m 0 min 0 min 0 W/m 12,9 km/h (3 Bft) 100,00 %
10.01.2023 07:40 4,2 C 3,9 C 1,1 C 93 % 1017,6 hPa 0,0 l/m 0 min 0 min 0 W/m 12,9 km/h (3 Bft) 97,87 %
10.01.2023 07:42 4,3 C 3,9 C 1,1 C 93 % 1017,6 hPa 0,0 l/m 0 min 0 min 0 W/m 16,1 km/h (3 Bft) 97,87 %
10.01.2023 07:44 4,3 C 3,9 C 1,1 C 93 % 1017,7 hPa 0,0 l/m 0 min 0 min 0 W/m 12,9 km/h (3 Bft) 97,87 %
10.01.2023 07:46 4,3 C 3,9 C 1,1 C 93 % 1017,7 hPa 0,0 l/m 0 min 0 min 0 W/m 12,9 km/h (3 Bft) 97,83 %
10.01.2023 07:48 4,3 C 3,9 C 1,1 C 93 % 1017,8 hPa 0,0 l/m 0 min 0 min 0 W/m 19,3 km/h (3 Bft) 95,74 %
10.01.2023 07:50 4,3 C 3,9 C 1,1 C 93 % 1017,9 hPa 0,0 l/m 0 min 0 min 0 W/m 16,1 km/h (3 Bft) 100,00 %
10.01.2023 07:52 4,3 C 3,9 C 1,1 C 93 % 1017,8 hPa 0,0 l/m 0 min 0 min 0 W/m 19,3 km/h (3 Bft) 100,00 %
10.01.2023 07:54 4,3 C 3,9 C 1,1 C 93 % 1017,9 hPa 0,0 l/m 0 min 0 min 0 W/m 19,3 km/h (3 Bft) 97,87 %
10.01.2023 07:56 4,3 C 3,9 C 1,1 C 93 % 1017,9 hPa 0,0 l/m 0 min 0 min 0 W/m 12,9 km/h (3 Bft) 95,74 %
10.01.2023 07:58 4,3 C 3,9 C 1,1 C 93 % 1017,9 hPa 0,0 l/m 0 min 0 min 0 W/m 12,9 km/h (3 Bft) 97,87 %
10.01.2023 08:00 4,3 C 3,9 C 1,1 C 93 % 1017,9 hPa 0,0 l/m 0 min 0 min 0 W/m 16,1 km/h (3 Bft) 97,83 %
10.01.2023 08:02 4,3 C 3,3 C 1,1 C 93 % 1018,0 hPa 0,0 l/m 0 min 0 min 0 W/m 16,1 km/h (3 Bft) 97,87 %
10.01.2023 08:04 4,3 C 3,3 C 1,1 C 93 % 1018,0 hPa 0,0 l/m 0 min 0 min 0 W/m 9,7 km/h (2 Bft) 97,87 %
10.01.2023 08:06 4,3 C 3,3 C 1,1 C 93 % 1018,1 hPa 0,0 l/m 0 min 0 min 0 W/m 12,9 km/h (3 Bft) 93,62 %
10.01.2023 08:08 4,3 C 3,3 C 1,1 C 93 % 1018,1 hPa 0,0 l/m 0 min 0 min 0 W/m 9,7 km/h (2 Bft) 97,87 %
10.01.2023 08:10 4,3 C 3,3 C 1,1 C 93 % 1018,2 hPa 0,0 l/m 0 min 0 min 0 W/m 16,1 km/h (3 Bft) 97,87 %
10.01.2023 08:12 4,3 C 3,3 C 1,1 C 93 % 1018,2 hPa 0,0 l/m 0 min 0 min 0 W/m 16,1 km/h (3 Bft) 97,87 %
10.01.2023 08:14 4,3 C 3,9 C 1,1 C 93 % 1018,3 hPa 0,0 l/m 0 min 0 min 0 W/m 16,1 km/h (3 Bft) 100,00 %
10.01.2023 08:16 4,3 C 3,9 C 1,1 C 93 % 1018,2 hPa 0,0 l/m 0 min 0 min 0 W/m 12,9 km/h (3 Bft) 97,87 %
10.01.2023 08:18 4,3 C 3,9 C 1,1 C 93 % 1018,2 hPa 0,0 l/m 0 min 0 min 0 W/m 16,1 km/h (3 Bft) 100,00 %
10.01.2023 08:20 4,3 C 3,9 C 1,1 C 93 % 1018,2 hPa 0,0 l/m 0 min 0 min 0 W/m 16,1 km/h (3 Bft) 100,00 %
10.01.2023 08:22 4,3 C 3,3 C 1,1 C 93 % 1018,3 hPa 0,0 l/m 0 min 0 min 0 W/m 19,3 km/h (3 Bft) 100,00 %
10.01.2023 08:24 4,3 C 3,3 C 1,1 C 93 % 1018,4 hPa 0,0 l/m 0 min 0 min 0 W/m 9,7 km/h (2 Bft) 100,00 %
10.01.2023 08:26 4,3 C 3,3 C 1,1 C 93 % 1018,3 hPa 0,0 l/m 0 min 0 min 0 W/m 12,9 km/h (3 Bft) 100,00 %
10.01.2023 08:28 4,3 C 3,3 C 1,1 C 93 % 1018,5 hPa 0,0 l/m 0 min 0 min 0 W/m 16,1 km/h (3 Bft) 100,00 %
10.01.2023 08:30 4,3 C 3,3 C 1,1 C 93 % 1018,4 hPa 0,0 l/m 0 min 0 min 0 W/m 9,7 km/h (2 Bft) 97,87 %
10.01.2023 08:32 4,3 C 3,3 C 1,1 C 93 % 1018,4 hPa 0,0 l/m 0 min 0 min 0 W/m 12,9 km/h (3 Bft) 97,87 %
10.01.2023 08:34 4,3 C 3,3 C 1,1 C 93 % 1018,5 hPa 0,0 l/m 0 min 0 min 1 W/m 19,3 km/h (3 Bft) 97,87 %
10.01.2023 08:36 4,3 C 3,3 C 1,1 C 93 % 1018,5 hPa 0,0 l/m 0 min 0 min 5 W/m 19,3 km/h (3 Bft) 95,24 %
10.01.2023 08:38 4,3 C 3,3 C 1,1 C 93 % 1018,5 hPa 0,0 l/m 0 min 0 min 5 W/m 12,9 km/h (3 Bft) 93,62 %
10.01.2023 08:40 4,3 C 3,3 C 1,1 C 93 % 1018,5 hPa 0,0 l/m 0 min 0 min 5 W/m 16,1 km/h (3 Bft) 97,87 %
10.01.2023 08:42 4,3 C 3,3 C 1,1 C 93 % 1018,7 hPa 0,0 l/m 0 min 0 min 6 W/m 6,4 km/h (2 Bft) 95,74 %
10.01.2023 08:44 4,2 C 3,3 C 1,1 C 93 % 1018,7 hPa 0,0 l/m 0 min 0 min 7 W/m 6,4 km/h (2 Bft) 97,87 %
10.01.2023 08:46 4,2 C 3,3 C 1,1 C 93 % 1018,8 hPa 0,0 l/m 0 min 0 min 7 W/m 3,2 km/h (1 Bft) 97,87 %
10.01.2023 08:48 4,2 C 3,3 C 1,1 C 93 % 1018,8 hPa 0,0 l/m 0 min 0 min 8 W/m 9,7 km/h (2 Bft) 91,30 %
10.01.2023 08:50 4,2 C 3,3 C 1,1 C 93 % 1018,8 hPa 0,0 l/m 0 min 0 min 9 W/m 6,4 km/h (2 Bft) 95,74 %
10.01.2023 08:52 4,2 C 3,3 C 0,6 C 92 % 1018,8 hPa 0,0 l/m 0 min 0 min 10 W/m 16,1 km/h (3 Bft) 95,74 %
10.01.2023 08:54 4,1 C 3,3 C 1,1 C 92 % 1018,8 hPa 0,0 l/m 0 min 0 min 11 W/m 12,9 km/h (3 Bft) 91,49 %
10.01.2023 08:56 4,1 C 3,3 C 0,6 C 92 % 1018,8 hPa 0,0 l/m 0 min 0 min 12 W/m 9,7 km/h (2 Bft) 95,74 %
10.01.2023 08:58 4,1 C 3,3 C 0,6 C 93 % 1018,8 hPa 0,0 l/m 0 min 0 min 13 W/m 12,9 km/h (3 Bft) 93,62 %
10.01.2023 09:00 4,1 C 3,3 C 1,1 C 93 % 1018,9 hPa 0,0 l/m 0 min 0 min 14 W/m 16,1 km/h (3 Bft) 93,62 %
10.01.2023 09:02 4,1 C 3,3 C 1,1 C 93 % 1018,9 hPa 0,0 l/m 0 min 0 min 14 W/m 9,7 km/h (2 Bft) 91,30 %
10.01.2023 09:04 4,1 C 3,3 C 1,1 C 93 % 1019,0 hPa 0,0 l/m 0 min 0 min 16 W/m 9,7 km/h (2 Bft) 95,74 %
10.01.2023 09:06 4,1 C 3,3 C 1,1 C 93 % 1019,0 hPa 0,0 l/m 0 min 0 min 18 W/m 19,3 km/h (3 Bft) 96,61 %
10.01.2023 09:08 4,1 C 3,3 C 1,1 C 93 % 1019,0 hPa 0,0 l/m 0 min 0 min 18 W/m 9,7 km/h (2 Bft) 97,14 %
10.01.2023 09:10 4,1 C 3,3 C 1,1 C 93 % 1019,0 hPa 0,0 l/m 0 min 0 min 19 W/m 6,4 km/h (2 Bft) 94,12 %
10.01.2023 09:12 4,1 C 3,3 C 1,1 C 93 % 1019,0 hPa 0,0 l/m 0 min 0 min 20 W/m 19,3 km/h (3 Bft) 95,74 %
10.01.2023 09:14 4,1 C 3,9 C 1,1 C 93 % 1019,1 hPa 0,0 l/m 0 min 0 min 21 W/m 25,7 km/h (4 Bft) 95,74 %
10.01.2023 09:16 4,2 C 3,9 C 1,1 C 93 % 1019,1 hPa 0,0 l/m 0 min 0 min 21 W/m 9,7 km/h (2 Bft) 95,74 %
10.01.2023 09:18 4,2 C 3,9 C 1,1 C 93 % 1019,1 hPa 0,0 l/m 0 min 0 min 23 W/m 16,1 km/h (3 Bft) 95,74 %
10.01.2023 09:20 4,2 C 3,9 C 1,1 C 93 % 1019,1 hPa 0,0 l/m 0 min 0 min 23 W/m 16,1 km/h (3 Bft) 97,83 %
10.01.2023 09:22 4,2 C 3,9 C 1,1 C 93 % 1019,2 hPa 0,0 l/m 0 min 0 min 25 W/m 16,1 km/h (3 Bft) 97,87 %
10.01.2023 09:24 4,2 C 3,9 C 1,1 C 93 % 1019,1 hPa 0,0 l/m 0 min 0 min 25 W/m 12,9 km/h (3 Bft) 95,74 %
10.01.2023 09:26 4,2 C 3,9 C 1,1 C 93 % 1019,1 hPa 0,0 l/m 0 min 0 min 25 W/m 16,1 km/h (3 Bft) 95,74 %
10.01.2023 09:28 4,2 C 3,9 C 1,1 C 93 % 1019,1 hPa 0,0 l/m 0 min 0 min 27 W/m 9,7 km/h (2 Bft) 95,74 %
10.01.2023 09:30 4,2 C 3,9 C 1,1 C 93 % 1019,1 hPa 0,0 l/m 0 min 0 min 29 W/m 12,9 km/h (3 Bft) 95,74 %
10.01.2023 09:32 4,2 C 3,9 C 1,1 C 93 % 1019,2 hPa 0,0 l/m 0 min 0 min 30 W/m 19,3 km/h (3 Bft) 95,74 %
10.01.2023 09:34 4,3 C 3,9 C 1,1 C 93 % 1019,2 hPa 0,0 l/m 0 min 0 min 30 W/m 16,1 km/h (3 Bft) 97,83 %
10.01.2023 09:36 4,3 C 3,9 C 1,1 C 93 % 1019,1 hPa 0,0 l/m 0 min 0 min 31 W/m 16,1 km/h (3 Bft) 95,74 %
10.01.2023 09:38 4,3 C 3,9 C 1,1 C 93 % 1019,2 hPa 0,0 l/m 0 min 0 min 32 W/m 6,4 km/h (2 Bft) 95,74 %
10.01.2023 09:40 4,3 C 3,9 C 1,1 C 93 % 1019,1 hPa 0,0 l/m 0 min 0 min 33 W/m 9,7 km/h (2 Bft) 93,62 %
10.01.2023 09:42 4,3 C 3,9 C 1,1 C 93 % 1019,2 hPa 0,0 l/m 0 min 0 min 33 W/m 12,9 km/h (3 Bft) 95,74 %
10.01.2023 09:44 4,3 C 3,9 C 1,1 C 93 % 1019,2 hPa 0,0 l/m 0 min 0 min 34 W/m 9,7 km/h (2 Bft) 97,87 %
10.01.2023 09:46 4,3 C 3,9 C 1,1 C 93 % 1019,3 hPa 0,0 l/m 0 min 0 min 37 W/m 9,7 km/h (2 Bft) 97,87 %
10.01.2023 09:48 4,4 C 3,9 C 1,1 C 93 % 1019,3 hPa 0,0 l/m 0 min 0 min 37 W/m 16,1 km/h (3 Bft) 95,65 %
10.01.2023 09:50 4,4 C 3,9 C 1,1 C 93 % 1019,2 hPa 0,0 l/m 0 min 0 min 39 W/m 12,9 km/h (3 Bft) 97,87 %
10.01.2023 09:52 4,4 C 4,4 C 1,1 C 93 % 1019,3 hPa 0,0 l/m 0 min 0 min 40 W/m 25,7 km/h (4 Bft) 97,87 %
10.01.2023 09:54 4,4 C 4,4 C 1,1 C 93 % 1019,4 hPa 0,0 l/m 0 min 0 min 41 W/m 19,3 km/h (3 Bft) 100,00 %
10.01.2023 09:56 4,5 C 4,4 C 1,7 C 93 % 1019,3 hPa 0,0 l/m 0 min 0 min 42 W/m 19,3 km/h (3 Bft) 97,87 %
10.01.2023 09:58 4,6 C 4,4 C 1,7 C 93 % 1019,4 hPa 0,0 l/m 0 min 0 min 40 W/m 16,1 km/h (3 Bft) 97,87 %
10.01.2023 10:00 4,6 C 4,4 C 1,7 C 93 % 1019,3 hPa 0,0 l/m 0 min 0 min 46 W/m 12,9 km/h (3 Bft) 97,87 %
10.01.2023 10:02 4,6 C 4,4 C 1,7 C 93 % 1019,3 hPa 0,0 l/m 0 min 0 min 47 W/m 9,7 km/h (2 Bft) 93,48 %
10.01.2023 10:04 4,6 C 4,4 C 1,7 C 93 % 1019,3 hPa 0,0 l/m 0 min 0 min 49 W/m 12,9 km/h (3 Bft) 97,87 %
10.01.2023 10:06 4,6 C 4,4 C 1,7 C 93 % 1019,3 hPa 0,0 l/m 0 min 0 min 52 W/m 16,1 km/h (3 Bft) 97,87 %
10.01.2023 10:08 4,7 C 4,4 C 1,7 C 93 % 1019,3 hPa 0,0 l/m 0 min 0 min 56 W/m 12,9 km/h (3 Bft) 95,74 %
10.01.2023 10:10 4,7 C 4,4 C 1,7 C 92 % 1019,3 hPa 0,0 l/m 0 min 0 min 85 W/m 12,9 km/h (3 Bft) 95,74 %
10.01.2023 10:12 4,7 C 4,4 C 1,7 C 92 % 1019,3 hPa 0,0 l/m 2 min 0 min 124 W/m 22,5 km/h (4 Bft) 97,87 %
10.01.2023 10:14 4,7 C 5,0 C 1,7 C 92 % 1019,4 hPa 0,0 l/m 2 min 0 min 149 W/m 12,9 km/h (3 Bft) 95,74 %
10.01.2023 10:16 4,8 C 5,0 C 1,7 C 92 % 1019,3 hPa 0,0 l/m 2 min 0 min 163 W/m 19,3 km/h (3 Bft) 97,83 %
10.01.2023 10:18 4,8 C 5,0 C 1,7 C 92 % 1019,4 hPa 0,0 l/m 2 min 0 min 173 W/m 12,9 km/h (3 Bft) 97,87 %
10.01.2023 10:20 4,9 C 5,0 C 2,2 C 92 % 1019,3 hPa 0,0 l/m 2 min 0 min 186 W/m 9,7 km/h (2 Bft) 95,74 %
10.01.2023 10:22 4,9 C 5,6 C 2,2 C 92 % 1019,4 hPa 0,0 l/m 2 min 0 min 196 W/m 9,7 km/h (2 Bft) 97,87 %
10.01.2023 10:24 5,0 C 5,6 C 2,2 C 92 % 1019,4 hPa 0,0 l/m 2 min 0 min 197 W/m 12,9 km/h (3 Bft) 93,62 %
10.01.2023 10:26 5,0 C 5,6 C 2,2 C 92 % 1019,3 hPa 0,0 l/m 2 min 0 min 199 W/m 19,3 km/h (3 Bft) 97,87 %
10.01.2023 10:28 5,1 C 5,6 C 2,2 C 92 % 1019,3 hPa 0,0 l/m 2 min 0 min 186 W/m 22,5 km/h (4 Bft) 95,74 %
10.01.2023 10:30 5,1 C 5,6 C 2,2 C 92 % 1019,3 hPa 0,0 l/m 2 min 0 min 173 W/m 12,9 km/h (3 Bft) 95,74 %
10.01.2023 10:32 5,2 C 5,6 C 2,2 C 92 % 1019,3 hPa 0,0 l/m 2 min 0 min 154 W/m 19,3 km/h (3 Bft) 93,48 %
10.01.2023 10:34 5,2 C 5,6 C 2,2 C 92 % 1019,3 hPa 0,0 l/m 2 min 0 min 147 W/m 32,2 km/h (5 Bft) 95,74 %
10.01.2023 10:36 5,3 C 5,6 C 2,2 C 91 % 1019,4 hPa 0,0 l/m 2 min 0 min 143 W/m 12,9 km/h (3 Bft) 97,87 %
10.01.2023 10:38 5,3 C 5,6 C 2,2 C 91 % 1019,4 hPa 0,0 l/m 2 min 0 min 140 W/m 19,3 km/h (3 Bft) 95,74 %
10.01.2023 10:40 5,3 C 5,6 C 2,2 C 91 % 1019,4 hPa 0,0 l/m 2 min 0 min 133 W/m 19,3 km/h (3 Bft) 95,74 %
10.01.2023 10:42 5,3 C 5,6 C 2,2 C 91 % 1019,4 hPa 0,0 l/m 2 min 0 min 133 W/m 22,5 km/h (4 Bft) 55,32 %
10.01.2023 10:44 5,4 C 5,6 C 2,2 C 91 % 1019,3 hPa 0,0 l/m 2 min 0 min 130 W/m 22,5 km/h (4 Bft) 97,73 %
10.01.2023 10:46 5,4 C 5,6 C 2,2 C 91 % 1019,5 hPa 0,0 l/m 2 min 0 min 142 W/m 22,5 km/h (4 Bft) 97,87 %
10.01.2023 10:48 5,4 C 5,6 C 2,2 C 91 % 1019,4 hPa 0,0 l/m 2 min 0 min 135 W/m 16,1 km/h (3 Bft) 97,87 %
10.01.2023 10:50 5,4 C 5,6 C 2,2 C 90 % 1019,4 hPa 0,0 l/m 2 min 0 min 149 W/m 19,3 km/h (3 Bft) 95,74 %
10.01.2023 10:52 5,5 C 5,6 C 2,2 C 90 % 1019,5 hPa 0,0 l/m 2 min 0 min 154 W/m 19,3 km/h (3 Bft) 97,87 %
10.01.2023 10:54 5,5 C 5,6 C 2,8 C 90 % 1019,5 hPa 0,0 l/m 2 min 0 min 158 W/m 19,3 km/h (3 Bft) 97,87 %
10.01.2023 10:56 5,6 C 5,6 C 2,8 C 90 % 1019,4 hPa 0,0 l/m 2 min 0 min 187 W/m 19,3 km/h (3 Bft) 97,87 %
10.01.2023 10:58 5,6 C 6,1 C 2,8 C 90 % 1019,5 hPa 0,0 l/m 2 min 0 min 185 W/m 25,7 km/h (4 Bft) 97,83 %
10.01.2023 11:00 5,6 C 6,1 C 2,8 C 90 % 1019,5 hPa 0,0 l/m 2 min 0 min 198 W/m 16,1 km/h (3 Bft) 97,87 %
10.01.2023 11:02 5,7 C 6,1 C 2,8 C 90 % 1019,5 hPa 0,0 l/m 2 min 0 min 193 W/m 16,1 km/h (3 Bft) 97,87 %
10.01.2023 11:04 5,8 C 6,1 C 2,8 C 90 % 1019,5 hPa 0,0 l/m 2 min 0 min 177 W/m 16,1 km/h (3 Bft) 97,87 %
10.01.2023 11:06 5,8 C 6,1 C 2,8 C 90 % 1019,4 hPa 0,0 l/m 2 min 0 min 155 W/m 29,0 km/h (5 Bft) 95,74 %
10.01.2023 11:08 5,8 C 6,1 C 2,8 C 90 % 1019,4 hPa 0,0 l/m 2 min 0 min 169 W/m 25,7 km/h (4 Bft) 97,87 %
10.01.2023 11:10 5,9 C 6,1 C 2,8 C 89 % 1019,3 hPa 0,0 l/m 2 min 0 min 180 W/m 22,5 km/h (4 Bft) 100,00 %
10.01.2023 11:12 5,9 C 6,1 C 2,8 C 89 % 1019,4 hPa 0,0 l/m 2 min 0 min 178 W/m 16,1 km/h (3 Bft) 100,00 %
10.01.2023 11:14 6,0 C 6,1 C 2,8 C 89 % 1019,4 hPa 0,0 l/m 2 min 0 min 183 W/m 29,0 km/h (5 Bft) 100,00 %
10.01.2023 11:16 6,0 C 6,1 C 2,8 C 89 % 1019,4 hPa 0,0 l/m 2 min 0 min 181 W/m 22,5 km/h (4 Bft) 100,00 %
10.01.2023 11:18 6,1 C 6,7 C 2,8 C 89 % 1019,4 hPa 0,0 l/m 2 min 0 min 175 W/m 16,1 km/h (3 Bft) 100,00 %
10.01.2023 11:20 6,1 C 6,7 C 3,3 C 89 % 1019,4 hPa 0,0 l/m 2 min 0 min 174 W/m 19,3 km/h (3 Bft) 100,00 %
10.01.2023 11:22 6,1 C 6,7 C 3,3 C 88 % 1019,3 hPa 0,0 l/m 2 min 0 min 172 W/m 29,0 km/h (5 Bft) 100,00 %
10.01.2023 11:24 6,2 C 6,7 C 3,3 C 88 % 1019,4 hPa 0,0 l/m 2 min 0 min 172 W/m 22,5 km/h (4 Bft) 100,00 %
10.01.2023 11:26 6,1 C 6,7 C 3,3 C 88 % 1019,4 hPa 0,0 l/m 2 min 0 min 177 W/m 25,7 km/h (4 Bft) 100,00 %
10.01.2023 11:28 6,2 C 6,7 C 3,3 C 88 % 1019,3 hPa 0,0 l/m 2 min 0 min 170 W/m 16,1 km/h (3 Bft) 100,00 %
10.01.2023 11:30 6,2 C 6,7 C 3,3 C 88 % 1019,3 hPa 0,0 l/m 2 min 0 min 166 W/m 22,5 km/h (4 Bft) 95,74 %
10.01.2023 11:32 6,2 C 6,7 C 3,3 C 88 % 1019,2 hPa 0,0 l/m 2 min 0 min 161 W/m 22,5 km/h (4 Bft) 95,74 %
10.01.2023 11:34 6,3 C 6,7 C 3,3 C 88 % 1019,4 hPa 0,0 l/m 2 min 0 min 163 W/m 25,7 km/h (4 Bft) 93,62 %
10.01.2023 11:36 6,3 C 6,7 C 3,3 C 88 % 1019,3 hPa 0,0 l/m 2 min 0 min 162 W/m 29,0 km/h (5 Bft) 95,74 %
10.01.2023 11:38 6,3 C 6,7 C 3,3 C 87 % 1019,4 hPa 0,0 l/m 2 min 0 min 161 W/m 22,5 km/h (4 Bft) 97,87 %
10.01.2023 11:40 6,3 C 6,7 C 3,3 C 88 % 1019,4 hPa 0,0 l/m 2 min 0 min 159 W/m 25,7 km/h (4 Bft) 95,74 %
10.01.2023 11:42 6,3 C 6,7 C 3,3 C 87 % 1019,4 hPa 0,0 l/m 2 min 0 min 156 W/m 32,2 km/h (5 Bft) 97,83 %
10.01.2023 11:44 6,4 C 6,7 C 3,3 C 87 % 1019,3 hPa 0,0 l/m 2 min 0 min 153 W/m 19,3 km/h (3 Bft) 97,87 %
10.01.2023 11:46 6,4 C 6,7 C 3,3 C 87 % 1019,4 hPa 0,0 l/m 0 min 0 min 151 W/m 29,0 km/h (5 Bft) 97,87 %
10.01.2023 11:48 6,5 C 6,7 C 3,3 C 87 % 1019,2 hPa 0,0 l/m 2 min 0 min 156 W/m 25,7 km/h (4 Bft) 97,87 %
10.01.2023 11:50 6,5 C 7,2 C 3,3 C 87 % 1019,2 hPa 0,0 l/m 2 min 0 min 161 W/m 19,3 km/h (3 Bft) 95,74 %
10.01.2023 11:52 6,6 C 7,2 C 3,3 C 87 % 1019,2 hPa 0,0 l/m 2 min 0 min 169 W/m 12,9 km/h (3 Bft) 97,87 %
10.01.2023 11:54 6,6 C 7,2 C 3,3 C 87 % 1019,1 hPa 0,0 l/m 2 min 0 min 169 W/m 22,5 km/h (4 Bft) 97,87 %
10.01.2023 11:56 6,7 C 7,2 C 3,3 C 87 % 1019,0 hPa 0,0 l/m 0 min 0 min 153 W/m 16,1 km/h (3 Bft) 97,83 %
10.01.2023 11:58 6,7 C 7,2 C 3,9 C 87 % 1019,0 hPa 0,0 l/m 0 min 0 min 148 W/m 9,7 km/h (2 Bft) 97,87 %
10.01.2023 12:00 6,8 C 7,2 C 3,9 C 87 % 1019,0 hPa 0,0 l/m 0 min 0 min 146 W/m 12,9 km/h (3 Bft) 97,87 %
10.01.2023 12:02 6,8 C 7,2 C 3,9 C 87 % 1019,0 hPa 0,0 l/m 0 min 0 min 146 W/m 12,9 km/h (3 Bft) 95,74 %
10.01.2023 12:04 6,8 C 7,2 C 3,9 C 87 % 1018,9 hPa 0,0 l/m 0 min 0 min 146 W/m 16,1 km/h (3 Bft) 100,00 %
10.01.2023 12:08 6,9 C 7,2 C 3,9 C 86 % 1018,8 hPa 0,0 l/m 0 min 0 min 146 W/m 19,3 km/h (3 Bft) 73,33 %
10.01.2023 12:10 6,9 C 7,2 C 3,9 C 86 % 1018,8 hPa 0,0 l/m 0 min 0 min 141 W/m 22,5 km/h (4 Bft) 97,83 %
10.01.2023 12:12 7,0 C 7,2 C 3,9 C 86 % 1018,8 hPa 0,0 l/m 0 min 0 min 138 W/m 22,5 km/h (4 Bft) 95,74 %
10.01.2023 12:14 7,0 C 7,2 C 3,9 C 86 % 1018,7 hPa 0,0 l/m 0 min 0 min 137 W/m 19,3 km/h (3 Bft) 95,74 %
10.01.2023 12:16 7,1 C 7,2 C 3,9 C 86 % 1018,7 hPa 0,0 l/m 0 min 0 min 136 W/m 16,1 km/h (3 Bft) 97,87 %
10.01.2023 12:18 7,1 C 7,2 C 3,9 C 86 % 1018,7 hPa 0,0 l/m 0 min 0 min 139 W/m 19,3 km/h (3 Bft) 100,00 %
10.01.2023 12:20 7,1 C 7,2 C 3,9 C 85 % 1018,7 hPa 0,0 l/m 0 min 0 min 142 W/m 16,1 km/h (3 Bft) 100,00 %
10.01.2023 12:22 7,1 C 7,8 C 3,9 C 85 % 1018,7 hPa 0,0 l/m 0 min 0 min 144 W/m 19,3 km/h (3 Bft) 100,00 %
10.01.2023 12:24 7,2 C 7,8 C 3,9 C 85 % 1018,7 hPa 0,0 l/m 0 min 0 min 142 W/m 12,9 km/h (3 Bft) 97,83 %
10.01.2023 12:26 7,2 C 7,8 C 3,9 C 85 % 1018,7 hPa 0,0 l/m 0 min 0 min 142 W/m 16,1 km/h (3 Bft) 100,00 %
10.01.2023 12:28 7,2 C 7,8 C 3,9 C 85 % 1018,7 hPa 0,0 l/m 0 min 0 min 143 W/m 19,3 km/h (3 Bft) 97,87 %
10.01.2023 12:30 7,3 C 7,8 C 3,9 C 85 % 1018,7 hPa 0,0 l/m 0 min 0 min 145 W/m 19,3 km/h (3 Bft) 100,00 %
10.01.2023 12:32 7,3 C 7,8 C 3,9 C 85 % 1018,8 hPa 0,0 l/m 0 min 0 min 144 W/m 22,5 km/h (4 Bft) 100,00 %
10.01.2023 12:34 7,3 C 7,8 C 3,9 C 85 % 1018,8 hPa 0,0 l/m 0 min 0 min 145 W/m 16,1 km/h (3 Bft) 97,87 %
10.01.2023 12:36 7,4 C 7,8 C 3,9 C 85 % 1018,8 hPa 0,0 l/m 0 min 0 min 148 W/m 16,1 km/h (3 Bft) 97,87 %
10.01.2023 12:38 7,4 C 7,8 C 4,4 C 85 % 1018,7 hPa 0,0 l/m 0 min 0 min 151 W/m 22,5 km/h (4 Bft) 100,00 %
10.01.2023 12:40 7,4 C 7,8 C 4,4 C 85 % 1018,8 hPa 0,0 l/m 0 min 0 min 151 W/m 12,9 km/h (3 Bft) 100,00 %
10.01.2023 12:42 7,4 C 7,8 C 4,4 C 85 % 1018,8 hPa 0,0 l/m 0 min 0 min 149 W/m 19,3 km/h (3 Bft) 100,00 %
10.01.2023 12:44 7,5 C 7,8 C 4,4 C 84 % 1018,7 hPa 0,0 l/m 0 min 0 min 152 W/m 19,3 km/h (3 Bft) 97,87 %
10.01.2023 12:46 7,6 C 7,8 C 4,4 C 84 % 1018,6 hPa 0,0 l/m 0 min 0 min 154 W/m 12,9 km/h (3 Bft) 100,00 %
10.01.2023 12:48 7,6 C 7,8 C 4,4 C 84 % 1018,6 hPa 0,0 l/m 0 min 0 min 155 W/m 16,1 km/h (3 Bft) 97,87 %
10.01.2023 12:50 7,6 C 7,8 C 4,4 C 84 % 1018,6 hPa 0,0 l/m 0 min 0 min 160 W/m 19,3 km/h (3 Bft) 97,87 %
10.01.2023 12:52 7,6 C 8,3 C 4,4 C 84 % 1018,6 hPa 0,0 l/m 2 min 0 min 164 W/m 19,3 km/h (3 Bft) 95,65 %
10.01.2023 12:54 7,6 C 7,8 C 4,4 C 84 % 1018,5 hPa 0,0 l/m 0 min 0 min 158 W/m 22,5 km/h (4 Bft) 97,87 %
10.01.2023 12:56 7,7 C 8,3 C 4,4 C 84 % 1018,5 hPa 0,0 l/m 0 min 0 min 149 W/m 12,9 km/h (3 Bft) 95,74 %
10.01.2023 12:58 7,7 C 7,8 C 4,4 C 84 % 1018,5 hPa 0,0 l/m 0 min 0 min 138 W/m 19,3 km/h (3 Bft) 95,74 %
10.01.2023 13:00 7,7 C 7,8 C 4,4 C 83 % 1018,5 hPa 0,0 l/m 0 min 0 min 132 W/m 22,5 km/h (4 Bft) 97,87 %
10.01.2023 13:02 7,7 C 7,8 C 4,4 C 83 % 1018,5 hPa 0,0 l/m 0 min 0 min 127 W/m 22,5 km/h (4 Bft) 97,87 %
10.01.2023 13:04 7,8 C 7,8 C 4,4 C 83 % 1018,5 hPa 0,0 l/m 0 min 0 min 124 W/m 22,5 km/h (4 Bft) 95,74 %
10.01.2023 13:06 7,8 C 7,8 C 4,4 C 83 % 1018,4 hPa 0,0 l/m 0 min 0 min 123 W/m 19,3 km/h (3 Bft) 95,65 %
10.01.2023 13:08 7,8 C 7,8 C 4,4 C 83 % 1018,4 hPa 0,0 l/m 0 min 0 min 125 W/m 22,5 km/h (4 Bft) 95,74 %
10.01.2023 13:10 7,8 C 7,8 C 4,4 C 83 % 1018,5 hPa 0,0 l/m 0 min 0 min 128 W/m 25,7 km/h (4 Bft) 97,87 %
10.01.2023 13:12 7,8 C 7,8 C 4,4 C 83 % 1018,4 hPa 0,0 l/m 0 min 0 min 127 W/m 19,3 km/h (3 Bft) 93,62 %
10.01.2023 13:14 7,9 C 7,8 C 4,4 C 83 % 1018,3 hPa 0,0 l/m 0 min 0 min 125 W/m 16,1 km/h (3 Bft) 97,87 %
10.01.2023 13:16 7,9 C 7,8 C 4,4 C 83 % 1018,4 hPa 0,0 l/m 0 min 0 min 125 W/m 25,7 km/h (4 Bft) 95,74 %
10.01.2023 13:18 7,9 C 7,8 C 4,4 C 83 % 1018,3 hPa 0,0 l/m 0 min 0 min 124 W/m 12,9 km/h (3 Bft) 95,74 %
10.01.2023 13:20 7,9 C 7,8 C 4,4 C 83 % 1018,3 hPa 0,0 l/m 0 min 0 min 125 W/m 16,1 km/h (3 Bft) 95,65 %
10.01.2023 13:22 7,9 C 7,8 C 4,4 C 83 % 1018,2 hPa 0,0 l/m 0 min 0 min 123 W/m 19,3 km/h (3 Bft) 95,74 %
10.01.2023 13:24 7,9 C 7,8 C 4,4 C 83 % 1018,2 hPa 0,0 l/m 0 min 0 min 121 W/m 19,3 km/h (3 Bft) 95,74 %
10.01.2023 13:26 7,9 C 7,8 C 4,4 C 83 % 1018,2 hPa 0,0 l/m 0 min 0 min 120 W/m 25,7 km/h (4 Bft) 97,87 %
10.01.2023 13:28 7,9 C 7,8 C 4,4 C 83 % 1018,2 hPa 0,0 l/m 0 min 0 min 118 W/m 19,3 km/h (3 Bft) 95,74 %
10.01.2023 13:30 7,9 C 7,8 C 4,4 C 83 % 1018,2 hPa 0,0 l/m 0 min 0 min 116 W/m 19,3 km/h (3 Bft) 97,87 %
10.01.2023 13:32 7,9 C 7,8 C 4,4 C 83 % 1018,1 hPa 0,0 l/m 0 min 0 min 114 W/m 16,1 km/h (3 Bft) 97,87 %
10.01.2023 13:34 7,9 C 7,8 C 4,4 C 83 % 1018,1 hPa 0,0 l/m 0 min 0 min 112 W/m 12,9 km/h (3 Bft) 93,48 %
10.01.2023 13:36 8,0 C 7,8 C 4,4 C 83 % 1018,0 hPa 0,0 l/m 0 min 0 min 108 W/m 9,7 km/h (2 Bft) 97,87 %
10.01.2023 13:38 8,0 C 7,8 C 4,4 C 82 % 1018,1 hPa 0,0 l/m 0 min 0 min 105 W/m 12,9 km/h (3 Bft) 97,87 %
10.01.2023 13:40 8,0 C 7,8 C 4,4 C 83 % 1018,1 hPa 0,0 l/m 0 min 0 min 104 W/m 12,9 km/h (3 Bft) 76,60 %
10.01.2023 13:42 8,0 C 7,8 C 4,4 C 83 % 1018,1 hPa 0,0 l/m 0 min 0 min 104 W/m 6,4 km/h (2 Bft) 30,00 %
10.01.2023 13:44 8,1 C 7,8 C 4,4 C 83 % 1018,1 hPa 0,0 l/m 0 min 0 min 104 W/m 12,9 km/h (3 Bft) 97,87 %
10.01.2023 13:46 8,1 C 7,8 C 4,4 C 83 % 1018,0 hPa 0,0 l/m 0 min 0 min 103 W/m 16,1 km/h (3 Bft) 97,87 %
10.01.2023 13:48 8,1 C 7,8 C 4,4 C 83 % 1017,9 hPa 0,0 l/m 0 min 0 min 102 W/m 22,5 km/h (4 Bft) 93,62 %
10.01.2023 13:50 8,1 C 7,8 C 4,4 C 82 % 1017,9 hPa 0,0 l/m 0 min 0 min 100 W/m 19,3 km/h (3 Bft) 97,87 %
10.01.2023 13:52 8,1 C 7,8 C 4,4 C 82 % 1017,9 hPa 0,0 l/m 0 min 0 min 102 W/m 16,1 km/h (3 Bft) 95,65 %
10.01.2023 13:54 8,1 C 7,8 C 4,4 C 82 % 1017,9 hPa 0,0 l/m 0 min 0 min 102 W/m 12,9 km/h (3 Bft) 89,36 %
10.01.2023 13:56 8,1 C 7,8 C 4,4 C 82 % 1017,9 hPa 0,0 l/m 0 min 0 min 102 W/m 19,3 km/h (3 Bft) 82,98 %
10.01.2023 13:58 8,1 C 7,8 C 4,4 C 82 % 1017,8 hPa 0,0 l/m 0 min 0 min 102 W/m 16,1 km/h (3 Bft) 85,11 %
10.01.2023 14:00 8,2 C 7,8 C 4,4 C 82 % 1017,9 hPa 0,0 l/m 0 min 0 min 99 W/m 16,1 km/h (3 Bft) 87,23 %
10.01.2023 14:02 8,2 C 7,8 C 4,4 C 82 % 1017,8 hPa 0,0 l/m 0 min 0 min 94 W/m 16,1 km/h (3 Bft) 97,87 %
10.01.2023 14:04 8,2 C 7,8 C 4,4 C 82 % 1017,8 hPa 0,0 l/m 0 min 0 min 89 W/m 19,3 km/h (3 Bft) 95,74 %
10.01.2023 14:06 8,2 C 7,8 C 4,4 C 82 % 1017,7 hPa 0,0 l/m 0 min 0 min 85 W/m 16,1 km/h (3 Bft) 94,83 %
10.01.2023 14:08 8,2 C 7,8 C 4,4 C 82 % 1017,7 hPa 0,0 l/m 0 min 0 min 81 W/m 19,3 km/h (3 Bft) 97,14 %
10.01.2023 14:10 8,2 C 7,8 C 4,4 C 82 % 1017,7 hPa 0,0 l/m 0 min 0 min 79 W/m 12,9 km/h (3 Bft) 95,74 %
10.01.2023 14:12 8,2 C 7,8 C 4,4 C 82 % 1017,6 hPa 0,0 l/m 0 min 0 min 79 W/m 16,1 km/h (3 Bft) 95,74 %
10.01.2023 14:14 8,2 C 7,8 C 4,4 C 82 % 1017,6 hPa 0,0 l/m 0 min 0 min 79 W/m 19,3 km/h (3 Bft) 93,62 %
10.01.2023 14:16 8,2 C 7,8 C 4,4 C 82 % 1017,6 hPa 0,0 l/m 0 min 0 min 77 W/m 25,7 km/h (4 Bft) 95,74 %
10.01.2023 14:18 8,2 C 7,8 C 4,4 C 81 % 1017,7 hPa 0,0 l/m 0 min 0 min 76 W/m 16,1 km/h (3 Bft) 97,87 %
10.01.2023 14:20 8,2 C 7,8 C 4,4 C 81 % 1017,6 hPa 0,0 l/m 0 min 0 min 73 W/m 16,1 km/h (3 Bft) 97,83 %
10.01.2023 14:22 8,2 C 7,8 C 4,4 C 81 % 1017,6 hPa 0,0 l/m 0 min 0 min 70 W/m 19,3 km/h (3 Bft) 97,87 %
10.01.2023 14:24 8,2 C 7,8 C 4,4 C 81 % 1017,5 hPa 0,0 l/m 0 min 0 min 65 W/m 19,3 km/h (3 Bft) 97,87 %
10.01.2023 14:26 8,2 C 7,8 C 4,4 C 81 % 1017,4 hPa 0,0 l/m 0 min 0 min 63 W/m 25,7 km/h (4 Bft) 95,74 %
10.01.2023 14:28 8,2 C 7,8 C 4,4 C 81 % 1017,4 hPa 0,0 l/m 0 min 0 min 60 W/m 19,3 km/h (3 Bft) 97,87 %
10.01.2023 14:30 8,2 C 7,8 C 4,4 C 81 % 1017,3 hPa 0,0 l/m 0 min 0 min 59 W/m 25,7 km/h (4 Bft) 93,62 %
10.01.2023 14:32 8,2 C 7,8 C 4,4 C 80 % 1017,4 hPa 0,0 l/m 0 min 0 min 58 W/m 19,3 km/h (3 Bft) 95,74 %
10.01.2023 14:34 8,3 C 7,8 C 4,4 C 80 % 1017,3 hPa 0,0 l/m 0 min 0 min 58 W/m 29,0 km/h (5 Bft) 97,83 %
10.01.2023 14:36 8,3 C 7,8 C 4,4 C 80 % 1017,3 hPa 0,0 l/m 0 min 0 min 58 W/m 16,1 km/h (3 Bft) 97,87 %
10.01.2023 14:38 8,3 C 7,8 C 4,4 C 80 % 1017,3 hPa 0,0 l/m 0 min 0 min 59 W/m 19,3 km/h (3 Bft) 95,74 %
10.01.2023 14:40 8,3 C 7,8 C 4,4 C 80 % 1017,2 hPa 0,0 l/m 0 min 0 min 60 W/m 45,1 km/h (6 Bft) 97,87 %
10.01.2023 14:42 8,3 C 7,8 C 4,4 C 80 % 1017,2 hPa 0,0 l/m 0 min 0 min 60 W/m 29,0 km/h (5 Bft) 93,62 %
10.01.2023 14:44 8,3 C 7,8 C 4,4 C 80 % 1017,3 hPa 0,0 l/m 0 min 0 min 59 W/m 22,5 km/h (4 Bft) 95,74 %
10.01.2023 14:46 8,2 C 7,8 C 4,4 C 80 % 1017,2 hPa 0,0 l/m 0 min 0 min 58 W/m 29,0 km/h (5 Bft) 93,62 %
10.01.2023 14:48 8,3 C 7,8 C 4,4 C 80 % 1017,2 hPa 0,0 l/m 0 min 0 min 58 W/m 25,7 km/h (4 Bft) 95,65 %
10.01.2023 14:50 8,3 C 7,8 C 4,4 C 79 % 1017,2 hPa 0,0 l/m 0 min 0 min 56 W/m 22,5 km/h (4 Bft) 95,74 %
10.01.2023 14:52 8,2 C 7,8 C 4,4 C 79 % 1017,2 hPa 0,0 l/m 0 min 0 min 54 W/m 22,5 km/h (4 Bft) 97,87 %
10.01.2023 14:54 8,2 C 7,8 C 4,4 C 79 % 1017,1 hPa 0,0 l/m 0 min 0 min 53 W/m 25,7 km/h (4 Bft) 100,00 %
10.01.2023 14:56 8,2 C 7,8 C 4,4 C 79 % 1017,1 hPa 0,0 l/m 0 min 0 min 49 W/m 38,6 km/h (5 Bft) 93,62 %
10.01.2023 14:58 8,2 C 7,8 C 4,4 C 78 % 1017,0 hPa 0,0 l/m 0 min 0 min 47 W/m 25,7 km/h (4 Bft) 93,62 %
10.01.2023 15:00 8,2 C 7,8 C 4,4 C 78 % 1017,1 hPa 0,0 l/m 0 min 0 min 46 W/m 29,0 km/h (5 Bft) 97,87 %
10.01.2023 15:02 8,2 C 7,8 C 4,4 C 78 % 1017,0 hPa 0,0 l/m 0 min 0 min 44 W/m 19,3 km/h (3 Bft) 95,65 %
10.01.2023 15:04 8,2 C 7,8 C 4,4 C 78 % 1017,0 hPa 0,0 l/m 0 min 0 min 42 W/m 22,5 km/h (4 Bft) 95,74 %
10.01.2023 15:06 8,2 C 7,8 C 4,4 C 78 % 1017,0 hPa 0,0 l/m 0 min 0 min 40 W/m 16,1 km/h (3 Bft) 94,92 %
10.01.2023 15:08 8,2 C 7,8 C 4,4 C 78 % 1017,0 hPa 0,0 l/m 0 min 0 min 38 W/m 22,5 km/h (4 Bft) 97,14 %
10.01.2023 15:10 8,2 C 7,8 C 4,4 C 78 % 1016,9 hPa 0,0 l/m 0 min 0 min 37 W/m 19,3 km/h (3 Bft) 97,87 %
10.01.2023 15:12 8,2 C 7,8 C 4,4 C 78 % 1016,9 hPa 0,0 l/m 0 min 0 min 34 W/m 29,0 km/h (5 Bft) 97,87 %
10.01.2023 15:14 8,2 C 7,8 C 4,4 C 79 % 1016,9 hPa 0,0 l/m 0 min 0 min 33 W/m 16,1 km/h (3 Bft) 93,62 %
10.01.2023 15:16 8,2 C 7,8 C 4,4 C 79 % 1016,8 hPa 0,0 l/m 0 min 0 min 32 W/m 19,3 km/h (3 Bft) 95,65 %
10.01.2023 15:18 8,2 C 7,2 C 3,9 C 79 % 1016,8 hPa 0,0 l/m 0 min 0 min 31 W/m 12,9 km/h (3 Bft) 95,74 %
10.01.2023 15:20 8,2 C 7,2 C 3,9 C 79 % 1016,7 hPa 0,0 l/m 0 min 0 min 30 W/m 16,1 km/h (3 Bft) 95,74 %
10.01.2023 15:22 8,2 C 7,2 C 4,4 C 79 % 1016,7 hPa 0,0 l/m 0 min 0 min 28 W/m 22,5 km/h (4 Bft) 97,87 %
10.01.2023 15:24 8,2 C 7,2 C 3,9 C 78 % 1016,7 hPa 0,0 l/m 0 min 0 min 28 W/m 16,1 km/h (3 Bft) 97,87 %
10.01.2023 15:26 8,2 C 7,2 C 3,9 C 78 % 1016,7 hPa 0,0 l/m 0 min 0 min 28 W/m 19,3 km/h (3 Bft) 95,74 %
10.01.2023 15:28 8,1 C 7,8 C 3,9 C 78 % 1016,6 hPa 0,0 l/m 0 min 0 min 30 W/m 16,1 km/h (3 Bft) 97,87 %
10.01.2023 15:30 8,1 C 7,2 C 3,9 C 78 % 1016,6 hPa 0,0 l/m 0 min 0 min 31 W/m 25,7 km/h (4 Bft) 97,87 %
10.01.2023 15:32 8,1 C 7,2 C 3,9 C 78 % 1016,6 hPa 0,0 l/m 0 min 0 min 32 W/m 19,3 km/h (3 Bft) 95,65 %
10.01.2023 15:34 8,1 C 7,2 C 3,9 C 78 % 1016,6 hPa 0,0 l/m 0 min 0 min 32 W/m 22,5 km/h (4 Bft) 100,00 %
10.01.2023 15:36 8,1 C 7,2 C 3,9 C 78 % 1016,5 hPa 0,0 l/m 0 min 0 min 30 W/m 22,5 km/h (4 Bft) 100,00 %
10.01.2023 15:38 8,1 C 7,2 C 3,9 C 78 % 1016,5 hPa 0,0 l/m 0 min 0 min 29 W/m 19,3 km/h (3 Bft) 97,87 %
10.01.2023 15:40 8,1 C 7,2 C 3,9 C 78 % 1016,5 hPa 0,0 l/m 0 min 0 min 27 W/m 29,0 km/h (5 Bft) 97,87 %
10.01.2023 15:42 8,1 C 7,2 C 3,9 C 78 % 1016,5 hPa 0,0 l/m 0 min 0 min 26 W/m 16,1 km/h (3 Bft) 100,00 %
10.01.2023 15:44 8,1 C 7,2 C 3,9 C 78 % 1016,5 hPa 0,0 l/m 0 min 0 min 25 W/m 25,7 km/h (4 Bft) 100,00 %
10.01.2023 15:46 8,1 C 7,2 C 3,9 C 78 % 1016,5 hPa 0,0 l/m 0 min 0 min 21 W/m 16,1 km/h (3 Bft) 100,00 %
10.01.2023 15:48 8,1 C 7,2 C 3,9 C 78 % 1016,5 hPa 0,0 l/m 0 min 0 min 18 W/m 16,1 km/h (3 Bft) 100,00 %
10.01.2023 15:50 8,1 C 7,2 C 3,9 C 78 % 1016,5 hPa 0,0 l/m 0 min 0 min 18 W/m 32,2 km/h (5 Bft) 97,87 %
10.01.2023 15:52 8,1 C 7,2 C 3,9 C 78 % 1016,6 hPa 0,0 l/m 0 min 0 min 16 W/m 19,3 km/h (3 Bft) 97,87 %
10.01.2023 15:54 8,1 C 7,2 C 3,9 C 78 % 1016,5 hPa 0,0 l/m 0 min 0 min 14 W/m 19,3 km/h (3 Bft) 100,00 %
10.01.2023 15:56 8,1 C 7,2 C 3,9 C 78 % 1016,6 hPa 0,0 l/m 0 min 0 min 16 W/m 16,1 km/h (3 Bft) 100,00 %
10.01.2023 15:58 8,1 C 7,2 C 3,9 C 78 % 1016,5 hPa 0,0 l/m 0 min 0 min 16 W/m 22,5 km/h (4 Bft) 97,83 %
10.01.2023 16:00 8,1 C 7,2 C 3,9 C 79 % 1016,5 hPa 0,0 l/m 0 min 0 min 16 W/m 16,1 km/h (3 Bft) 95,74 %
10.01.2023 16:02 8,1 C 7,2 C 3,9 C 79 % 1016,4 hPa 0,0 l/m 0 min 0 min 16 W/m 25,7 km/h (4 Bft) 97,87 %
10.01.2023 16:04 8,0 C 7,2 C 3,9 C 79 % 1016,4 hPa 0,0 l/m 0 min 0 min 16 W/m 19,3 km/h (3 Bft) 100,00 %
10.01.2023 16:06 8,0 C 7,2 C 3,9 C 79 % 1016,4 hPa 0,0 l/m 0 min 0 min 16 W/m 22,5 km/h (4 Bft) 100,00 %
10.01.2023 16:08 8,0 C 7,2 C 3,9 C 79 % 1016,4 hPa 0,0 l/m 0 min 0 min 14 W/m 16,1 km/h (3 Bft) 97,14 %
10.01.2023 16:10 7,9 C 7,2 C 3,9 C 79 % 1016,3 hPa 0,0 l/m 0 min 0 min 14 W/m 12,9 km/h (3 Bft) 97,87 %
10.01.2023 16:12 7,9 C 7,2 C 3,9 C 79 % 1016,3 hPa 0,0 l/m 0 min 0 min 12 W/m 19,3 km/h (3 Bft) 95,74 %
10.01.2023 16:14 7,9 C 7,2 C 3,9 C 79 % 1016,3 hPa 0,0 l/m 0 min 0 min 12 W/m 19,3 km/h (3 Bft) 95,65 %
10.01.2023 16:16 7,8 C 7,2 C 3,9 C 79 % 1016,3 hPa 0,0 l/m 0 min 0 min 11 W/m 22,5 km/h (4 Bft) 95,74 %
10.01.2023 16:18 7,8 C 7,2 C 3,3 C 80 % 1016,3 hPa 0,0 l/m 0 min 0 min 9 W/m 19,3 km/h (3 Bft) 97,87 %
10.01.2023 16:20 7,8 C 7,2 C 3,3 C 80 % 1016,3 hPa 0,0 l/m 0 min 2 min 9 W/m 22,5 km/h (4 Bft) 97,87 %
10.01.2023 16:22 7,8 C 6,7 C 3,3 C 80 % 1016,2 hPa 0,0 l/m 0 min 2 min 9 W/m 19,3 km/h (3 Bft) 96,36 %
10.01.2023 16:24 7,8 C 6,7 C 2,8 C 81 % 1016,3 hPa 0,0 l/m 0 min 2 min 7 W/m 12,9 km/h (3 Bft) 100,00 %
10.01.2023 16:26 7,8 C 6,7 C 2,2 C 81 % 1016,2 hPa 0,0 l/m 0 min 2 min 6 W/m 22,5 km/h (4 Bft) 95,74 %
10.01.2023 16:28 7,8 C 6,7 C 2,2 C 82 % 1016,2 hPa 0,0 l/m 0 min 2 min 5 W/m 19,3 km/h (3 Bft) 95,74 %
10.01.2023 16:30 7,7 C 6,7 C 2,2 C 82 % 1016,0 hPa 0,2 l/m 0 min 2 min 3 W/m 22,5 km/h (4 Bft) 97,87 %
10.01.2023 16:32 7,7 C 6,1 C 1,7 C 83 % 1016,1 hPa 0,0 l/m 0 min 2 min 0 W/m 29,0 km/h (5 Bft) 97,87 %
10.01.2023 16:34 7,6 C 6,1 C 1,7 C 83 % 1016,0 hPa 0,2 l/m 0 min 2 min 0 W/m 19,3 km/h (3 Bft) 97,87 %
10.01.2023 16:36 7,5 C 5,6 C 1,7 C 84 % 1015,9 hPa 0,0 l/m 0 min 2 min 0 W/m 19,3 km/h (3 Bft) 97,87 %
10.01.2023 16:38 7,4 C 5,6 C 1,7 C 84 % 1015,8 hPa 0,0 l/m 0 min 2 min 0 W/m 16,1 km/h (3 Bft) 97,87 %
10.01.2023 16:40 7,4 C 5,6 C 1,7 C 85 % 1015,8 hPa 0,0 l/m 0 min 2 min 0 W/m 22,5 km/h (4 Bft) 95,74 %
10.01.2023 16:42 7,3 C 5,6 C 1,7 C 85 % 1015,7 hPa 0,0 l/m 0 min 2 min 0 W/m 16,1 km/h (3 Bft) 97,87 %
10.01.2023 16:44 7,3 C 5,6 C 1,7 C 85 % 1015,5 hPa 0,0 l/m 0 min 2 min 0 W/m 16,1 km/h (3 Bft) 45,95 %
10.01.2023 16:46 7,2 C 5,6 C 1,7 C 86 % 1015,5 hPa 0,2 l/m 0 min 2 min 0 W/m 19,3 km/h (3 Bft) 95,74 %
10.01.2023 16:48 7,1 C 5,6 C 1,7 C 86 % 1015,4 hPa 0,0 l/m 0 min 2 min 0 W/m 19,3 km/h (3 Bft) 97,87 %
10.01.2023 16:50 7,1 C 5,6 C 1,7 C 86 % 1015,4 hPa 0,0 l/m 0 min 2 min 0 W/m 12,9 km/h (3 Bft) 95,74 %
10.01.2023 16:52 7,0 C 5,6 C 1,7 C 87 % 1015,3 hPa 0,0 l/m 0 min 2 min 0 W/m 22,5 km/h (4 Bft) 95,74 %
10.01.2023 16:54 6,9 C 5,6 C 1,7 C 87 % 1015,3 hPa 0,0 l/m 0 min 2 min 0 W/m 16,1 km/h (3 Bft) 95,74 %
10.01.2023 16:56 6,9 C 5,6 C 1,7 C 87 % 1015,3 hPa 0,0 l/m 0 min 2 min 0 W/m 12,9 km/h (3 Bft) 96,49 %
10.01.2023 16:58 6,8 C 5,6 C 1,7 C 88 % 1015,3 hPa 0,2 l/m 0 min 2 min 0 W/m 16,1 km/h (3 Bft) 95,74 %
10.01.2023 17:00 6,8 C 5,6 C 1,7 C 88 % 1015,3 hPa 0,0 l/m 0 min 2 min 0 W/m 16,1 km/h (3 Bft) 91,43 %
10.01.2023 17:02 6,7 C 5,6 C 1,7 C 88 % 1015,3 hPa 0,0 l/m 0 min 2 min 0 W/m 22,5 km/h (4 Bft) 94,92 %
10.01.2023 17:04 6,6 C 5,6 C 1,7 C 88 % 1015,2 hPa 0,0 l/m 0 min 2 min 0 W/m 29,0 km/h (5 Bft) 95,65 %
10.01.2023 17:06 6,6 C 5,6 C 1,7 C 89 % 1015,1 hPa 0,0 l/m 0 min 2 min 0 W/m 19,3 km/h (3 Bft) 93,62 %
10.01.2023 17:08 6,6 C 5,0 C 1,7 C 89 % 1015,1 hPa 0,0 l/m 0 min 2 min 0 W/m 19,3 km/h (3 Bft) 95,74 %
10.01.2023 17:10 6,5 C 5,0 C 1,7 C 89 % 1015,0 hPa 0,0 l/m 0 min 2 min 0 W/m 16,1 km/h (3 Bft) 95,74 %
10.01.2023 17:12 6,5 C 5,0 C 1,7 C 89 % 1015,0 hPa 0,0 l/m 0 min 2 min 0 W/m 32,2 km/h (5 Bft) 94,29 %
10.01.2023 17:14 6,4 C 5,0 C 1,7 C 90 % 1015,0 hPa 0,2 l/m 0 min 2 min 0 W/m 16,1 km/h (3 Bft) 93,62 %
10.01.2023 17:16 6,4 C 5,0 C 1,7 C 90 % 1015,0 hPa 0,0 l/m 0 min 2 min 0 W/m 22,5 km/h (4 Bft) 95,74 %
10.01.2023 17:18 6,4 C 5,0 C 1,7 C 90 % 1015,0 hPa 0,0 l/m 0 min 2 min 0 W/m 16,1 km/h (3 Bft) 93,62 %
10.01.2023 17:20 6,3 C 5,0 C 1,7 C 90 % 1015,0 hPa 0,0 l/m 0 min 2 min 0 W/m 12,9 km/h (3 Bft) 95,65 %
10.01.2023 17:22 6,3 C 5,0 C 1,7 C 90 % 1015,0 hPa 0,2 l/m 0 min 2 min 0 W/m 16,1 km/h (3 Bft) 95,74 %
10.01.2023 17:24 6,3 C 5,0 C 1,7 C 91 % 1015,0 hPa 0,0 l/m 0 min 2 min 0 W/m 19,3 km/h (3 Bft) 100,00 %
10.01.2023 17:26 6,3 C 5,0 C 1,7 C 91 % 1015,0 hPa 0,0 l/m 0 min 2 min 0 W/m 19,3 km/h (3 Bft) 95,74 %
10.01.2023 17:28 6,3 C 5,0 C 1,7 C 91 % 1015,0 hPa 0,0 l/m 0 min 2 min 0 W/m 19,3 km/h (3 Bft) 97,87 %
10.01.2023 17:30 6,2 C 5,0 C 1,7 C 91 % 1014,9 hPa 0,2 l/m 0 min 2 min 0 W/m 25,7 km/h (4 Bft) 97,87 %
10.01.2023 17:32 6,2 C 5,0 C 1,7 C 91 % 1014,9 hPa 0,0 l/m 0 min 2 min 0 W/m 19,3 km/h (3 Bft) 97,87 %
10.01.2023 17:34 6,2 C 5,0 C 1,7 C 91 % 1014,8 hPa 0,0 l/m 0 min 2 min 0 W/m 19,3 km/h (3 Bft) 97,83 %
10.01.2023 17:36 6,2 C 5,0 C 1,7 C 92 % 1014,8 hPa 0,2 l/m 0 min 2 min 0 W/m 16,1 km/h (3 Bft) 97,96 %
10.01.2023 17:38 6,2 C 5,0 C 1,7 C 92 % 1014,7 hPa 0,0 l/m 0 min 2 min 0 W/m 25,7 km/h (4 Bft) 94,55 %
10.01.2023 17:40 6,2 C 5,0 C 1,7 C 92 % 1014,7 hPa 0,0 l/m 0 min 2 min 0 W/m 25,7 km/h (4 Bft) 97,87 %
10.01.2023 17:42 6,2 C 5,0 C 1,7 C 92 % 1014,6 hPa 0,2 l/m 0 min 2 min 0 W/m 16,1 km/h (3 Bft) 97,37 %
10.01.2023 17:44 6,1 C 5,0 C 1,7 C 92 % 1014,7 hPa 0,0 l/m 0 min 2 min 0 W/m 19,3 km/h (3 Bft) 97,87 %
10.01.2023 17:46 6,1 C 5,0 C 1,7 C 92 % 1014,6 hPa 0,2 l/m 0 min 2 min 0 W/m 22,5 km/h (4 Bft) 97,87 %
10.01.2023 17:48 6,1 C 5,0 C 1,7 C 92 % 1014,6 hPa 0,0 l/m 0 min 2 min 0 W/m 19,3 km/h (3 Bft) 97,83 %
10.01.2023 17:50 6,1 C 5,0 C 1,7 C 93 % 1014,6 hPa 0,0 l/m 0 min 2 min 0 W/m 22,5 km/h (4 Bft) 100,00 %
10.01.2023 17:52 6,1 C 5,0 C 1,7 C 93 % 1014,6 hPa 0,2 l/m 0 min 2 min 0 W/m 22,5 km/h (4 Bft) 100,00 %
10.01.2023 17:54 6,1 C 5,0 C 1,7 C 93 % 1014,6 hPa 0,0 l/m 0 min 2 min 0 W/m 19,3 km/h (3 Bft) 100,00 %
10.01.2023 17:56 6,1 C 5,0 C 1,7 C 93 % 1014,6 hPa 0,2 l/m 0 min 2 min 0 W/m 22,5 km/h (4 Bft) 93,62 %
10.01.2023 17:58 6,1 C 5,0 C 1,7 C 93 % 1014,6 hPa 0,0 l/m 0 min 2 min 0 W/m 19,3 km/h (3 Bft) 100,00 %
10.01.2023 18:00 6,1 C 5,0 C 1,7 C 93 % 1014,7 hPa 0,0 l/m 0 min 2 min 0 W/m 25,7 km/h (4 Bft) 100,00 %
10.01.2023 18:02 6,1 C 5,0 C 1,7 C 93 % 1014,6 hPa 0,0 l/m 0 min 2 min 0 W/m 16,1 km/h (3 Bft) 97,87 %
10.01.2023 18:04 6,1 C 5,0 C 1,7 C 93 % 1014,6 hPa 0,2 l/m 0 min 2 min 0 W/m 16,1 km/h (3 Bft) 100,00 %
10.01.2023 18:07 6,1 C 5,0 C 1,7 C 93 % 1014,5 hPa 0,0 l/m 0 min 3 min 0 W/m 16,1 km/h (3 Bft) 98,57 %
10.01.2023 18:08 6,1 C 5,0 C 1,7 C 93 % 1014,5 hPa 0,2 l/m 0 min 1 min 0 W/m 19,3 km/h (3 Bft) 100,00 %
10.01.2023 18:10 6,1 C 5,0 C 1,7 C 93 % 1014,5 hPa 0,0 l/m 0 min 2 min 0 W/m 16,1 km/h (3 Bft) 100,00 %
10.01.2023 18:12 6,1 C 5,0 C 1,7 C 94 % 1014,6 hPa 0,0 l/m 0 min 2 min 0 W/m 16,1 km/h (3 Bft) 100,00 %
10.01.2023 18:14 6,1 C 5,0 C 1,7 C 94 % 1014,5 hPa 0,0 l/m 0 min 2 min 0 W/m 22,5 km/h (4 Bft) 100,00 %
10.01.2023 18:16 6,1 C 5,0 C 1,7 C 94 % 1014,5 hPa 0,2 l/m 0 min 2 min 0 W/m 19,3 km/h (3 Bft) 97,87 %
10.01.2023 18:18 6,1 C 5,0 C 1,7 C 94 % 1014,4 hPa 0,2 l/m 0 min 2 min 0 W/m 19,3 km/h (3 Bft) 100,00 %
10.01.2023 18:20 6,1 C 5,0 C 1,7 C 94 % 1014,3 hPa 0,0 l/m 0 min 2 min 0 W/m 12,9 km/h (3 Bft) 97,83 %
10.01.2023 18:22 6,1 C 5,0 C 1,7 C 94 % 1014,3 hPa 0,2 l/m 0 min 2 min 0 W/m 16,1 km/h (3 Bft) 97,87 %
10.01.2023 18:24 6,1 C 5,0 C 1,7 C 94 % 1014,2 hPa 0,2 l/m 0 min 2 min 0 W/m 25,7 km/h (4 Bft) 100,00 %
10.01.2023 18:26 6,1 C 5,0 C 1,7 C 94 % 1014,2 hPa 0,0 l/m 0 min 2 min 0 W/m 19,3 km/h (3 Bft) 95,74 %
10.01.2023 18:28 6,0 C 5,0 C 1,7 C 94 % 1014,1 hPa 0,2 l/m 0 min 2 min 0 W/m 25,7 km/h (4 Bft) 100,00 %
10.01.2023 18:30 6,0 C 5,0 C 1,7 C 94 % 1014,1 hPa 0,0 l/m 0 min 2 min 0 W/m 22,5 km/h (4 Bft) 97,87 %
10.01.2023 18:32 6,0 C 5,0 C 1,7 C 94 % 1014,0 hPa 0,2 l/m 0 min 2 min 0 W/m 19,3 km/h (3 Bft) 97,83 %
10.01.2023 18:34 6,0 C 5,0 C 1,7 C 94 % 1014,0 hPa 0,0 l/m 0 min 2 min 0 W/m 19,3 km/h (3 Bft) 97,87 %
10.01.2023 18:36 6,0 C 5,0 C 1,7 C 94 % 1013,9 hPa 0,0 l/m 0 min 2 min 0 W/m 29,0 km/h (5 Bft) 95,74 %
10.01.2023 18:38 6,0 C 5,0 C 1,7 C 94 % 1013,9 hPa 0,2 l/m 0 min 2 min 0 W/m 22,5 km/h (4 Bft) 97,87 %
10.01.2023 18:40 6,0 C 5,0 C 1,7 C 94 % 1013,9 hPa 0,0 l/m 0 min 2 min 0 W/m 25,7 km/h (4 Bft) 95,74 %
10.01.2023 18:42 5,9 C 5,0 C 1,7 C 95 % 1013,8 hPa 0,0 l/m 0 min 2 min 0 W/m 19,3 km/h (3 Bft) 93,62 %
10.01.2023 18:44 5,9 C 5,0 C 1,7 C 95 % 1013,8 hPa 0,0 l/m 0 min 2 min 0 W/m 22,5 km/h (4 Bft) 95,74 %
10.01.2023 18:46 5,9 C 5,0 C 1,7 C 95 % 1013,8 hPa 0,2 l/m 0 min 2 min 0 W/m 19,3 km/h (3 Bft) 95,65 %
10.01.2023 18:48 5,9 C 5,0 C 1,7 C 95 % 1013,8 hPa 0,0 l/m 0 min 2 min 0 W/m 19,3 km/h (3 Bft) 93,62 %
10.01.2023 18:50 5,9 C 5,0 C 2,2 C 95 % 1013,8 hPa 0,0 l/m 0 min 0 min 0 W/m 22,5 km/h (4 Bft) 95,74 %
10.01.2023 18:52 5,9 C 5,0 C 1,7 C 95 % 1013,7 hPa 0,0 l/m 0 min 0 min 0 W/m 19,3 km/h (3 Bft) 95,74 %
10.01.2023 18:54 5,9 C 5,0 C 1,7 C 95 % 1013,7 hPa 0,0 l/m 0 min 0 min 0 W/m 22,5 km/h (4 Bft) 95,74 %
10.01.2023 18:56 5,9 C 5,0 C 2,2 C 95 % 1013,8 hPa 0,0 l/m 0 min 0 min 0 W/m 19,3 km/h (3 Bft) 95,74 %
10.01.2023 18:58 5,9 C 5,0 C 1,7 C 95 % 1013,8 hPa 0,0 l/m 0 min 0 min 0 W/m 29,0 km/h (5 Bft) 95,74 %
10.01.2023 19:00 5,9 C 5,0 C 2,2 C 95 % 1013,7 hPa 0,0 l/m 0 min 0 min 0 W/m 25,7 km/h (4 Bft) 93,48 %
10.01.2023 19:02 5,9 C 5,0 C 2,2 C 95 % 1013,8 hPa 0,2 l/m 0 min 0 min 0 W/m 22,5 km/h (4 Bft) 93,62 %
10.01.2023 19:04 5,8 C 5,0 C 2,2 C 95 % 1013,7 hPa 0,0 l/m 0 min 0 min 0 W/m 19,3 km/h (3 Bft) 95,74 %
10.01.2023 19:06 5,8 C 5,0 C 2,2 C 95 % 1013,8 hPa 0,0 l/m 0 min 0 min 0 W/m 29,0 km/h (5 Bft) 93,62 %
10.01.2023 19:08 5,8 C 5,0 C 2,2 C 95 % 1013,7 hPa 0,0 l/m 0 min 0 min 0 W/m 32,2 km/h (5 Bft) 95,74 %
10.01.2023 19:10 5,8 C 5,0 C 2,2 C 95 % 1013,7 hPa 0,0 l/m 0 min 0 min 0 W/m 25,7 km/h (4 Bft) 95,74 %
10.01.2023 19:12 5,8 C 5,0 C 2,2 C 95 % 1013,6 hPa 0,2 l/m 0 min 0 min 0 W/m 16,1 km/h (3 Bft) 97,87 %
10.01.2023 19:14 5,8 C 5,0 C 2,2 C 95 % 1013,6 hPa 0,0 l/m 0 min 0 min 0 W/m 19,3 km/h (3 Bft) 95,65 %
10.01.2023 19:16 5,8 C 5,0 C 2,2 C 96 % 1013,5 hPa 0,0 l/m 0 min 0 min 0 W/m 22,5 km/h (4 Bft) 100,00 %
10.01.2023 19:18 5,8 C 5,0 C 2,2 C 96 % 1013,6 hPa 0,0 l/m 0 min 0 min 0 W/m 25,7 km/h (4 Bft) 100,00 %
10.01.2023 19:20 5,8 C 5,0 C 2,2 C 96 % 1013,5 hPa 0,0 l/m 0 min 0 min 0 W/m 25,7 km/h (4 Bft) 100,00 %
10.01.2023 19:22 5,8 C 5,0 C 2,2 C 96 % 1013,5 hPa 0,0 l/m 0 min 0 min 0 W/m 19,3 km/h (3 Bft) 100,00 %
10.01.2023 19:24 5,8 C 5,0 C 2,2 C 96 % 1013,4 hPa 0,0 l/m 0 min 0 min 0 W/m 22,5 km/h (4 Bft) 100,00 %
10.01.2023 19:26 5,8 C 5,0 C 2,2 C 96 % 1013,3 hPa 0,0 l/m 0 min 0 min 0 W/m 19,3 km/h (3 Bft) 97,87 %
10.01.2023 19:28 5,8 C 5,0 C 2,2 C 96 % 1013,3 hPa 0,2 l/m 0 min 0 min 0 W/m 19,3 km/h (3 Bft) 100,00 %
10.01.2023 19:30 5,8 C 5,0 C 2,2 C 96 % 1013,5 hPa 0,0 l/m 0 min 0 min 0 W/m 19,3 km/h (3 Bft) 100,00 %
10.01.2023 19:32 5,8 C 5,0 C 2,2 C 96 % 1013,4 hPa 0,0 l/m 0 min 0 min 0 W/m 19,3 km/h (3 Bft) 97,87 %
10.01.2023 19:34 5,8 C 5,0 C 2,2 C 96 % 1013,3 hPa 0,0 l/m 0 min 0 min 0 W/m 22,5 km/h (4 Bft) 100,00 %
10.01.2023 19:36 5,8 C 5,0 C 2,2 C 96 % 1013,3 hPa 0,0 l/m 0 min 0 min 0 W/m 32,2 km/h (5 Bft) 97,87 %
10.01.2023 19:38 5,8 C 5,0 C 2,2 C 96 % 1013,4 hPa 0,0 l/m 0 min 0 min 0 W/m 25,7 km/h (4 Bft) 100,00 %
10.01.2023 19:40 5,8 C 5,0 C 2,2 C 96 % 1013,3 hPa 0,0 l/m 0 min 0 min 0 W/m 29,0 km/h (5 Bft) 100,00 %
10.01.2023 19:42 5,8 C 5,0 C 2,2 C 96 % 1013,2 hPa 0,0 l/m 0 min 0 min 0 W/m 19,3 km/h (3 Bft) 100,00 %
10.01.2023 19:44 5,8 C 5,0 C 2,2 C 96 % 1013,2 hPa 0,0 l/m 0 min 0 min 0 W/m 22,5 km/h (4 Bft) 100,00 %
10.01.2023 19:46 5,8 C 5,0 C 2,2 C 96 % 1013,2 hPa 0,0 l/m 0 min 0 min 0 W/m 22,5 km/h (4 Bft) 95,74 %
10.01.2023 19:48 5,8 C 5,0 C 2,2 C 96 % 1013,1 hPa 0,0 l/m 0 min 0 min 0 W/m 19,3 km/h (3 Bft) 97,87 %
10.01.2023 19:50 5,8 C 5,0 C 2,2 C 96 % 1013,1 hPa 0,0 l/m 0 min 0 min 0 W/m 29,0 km/h (5 Bft) 100,00 %
10.01.2023 19:52 5,8 C 5,0 C 2,2 C 96 % 1013,1 hPa 0,0 l/m 0 min 0 min 0 W/m 29,0 km/h (5 Bft) 97,87 %
10.01.2023 19:54 5,8 C 5,0 C 2,2 C 96 % 1013,1 hPa 0,0 l/m 0 min 0 min 0 W/m 22,5 km/h (4 Bft) 100,00 %
10.01.2023 19:56 5,8 C 5,0 C 2,2 C 96 % 1013,0 hPa 0,0 l/m 0 min 0 min 0 W/m 19,3 km/h (3 Bft) 100,00 %
10.01.2023 19:58 5,8 C 5,0 C 2,2 C 96 % 1012,9 hPa 0,0 l/m 0 min 0 min 0 W/m 22,5 km/h (4 Bft) 95,74 %
10.01.2023 20:00 5,8 C 5,0 C 2,2 C 96 % 1013,0 hPa 0,0 l/m 0 min 0 min 0 W/m 25,7 km/h (4 Bft) 97,87 %
10.01.2023 20:02 5,8 C 5,0 C 2,2 C 96 % 1013,0 hPa 0,0 l/m 0 min 0 min 0 W/m 22,5 km/h (4 Bft) 97,87 %
10.01.2023 20:04 5,8 C 5,0 C 2,2 C 96 % 1012,9 hPa 0,0 l/m 0 min 0 min 0 W/m 19,3 km/h (3 Bft) 97,87 %
10.01.2023 20:06 5,8 C 5,0 C 2,2 C 97 % 1013,0 hPa 0,0 l/m 0 min 0 min 0 W/m 16,1 km/h (3 Bft) 98,08 %
10.01.2023 20:08 5,8 C 5,0 C 2,2 C 97 % 1012,9 hPa 0,0 l/m 0 min 0 min 0 W/m 29,0 km/h (5 Bft) 97,62 %
10.01.2023 20:10 5,8 C 5,0 C 2,2 C 97 % 1012,9 hPa 0,0 l/m 0 min 0 min 0 W/m 16,1 km/h (3 Bft) 97,83 %
10.01.2023 20:12 5,8 C 5,0 C 2,2 C 97 % 1012,9 hPa 0,0 l/m 0 min 0 min 0 W/m 16,1 km/h (3 Bft) 78,72 %
10.01.2023 20:14 5,8 C 5,0 C 2,2 C 97 % 1012,9 hPa 0,0 l/m 0 min 0 min 0 W/m 16,1 km/h (3 Bft) 73,91 %
10.01.2023 20:16 5,8 C 5,0 C 2,2 C 97 % 1012,8 hPa 0,0 l/m 0 min 0 min 0 W/m 22,5 km/h (4 Bft) 97,87 %
10.01.2023 20:18 5,8 C 5,0 C 2,2 C 97 % 1012,8 hPa 0,0 l/m 0 min 0 min 0 W/m 16,1 km/h (3 Bft) 97,87 %
10.01.2023 20:20 5,8 C 5,0 C 2,2 C 97 % 1012,7 hPa 0,0 l/m 0 min 0 min 0 W/m 12,9 km/h (3 Bft) 97,87 %
10.01.2023 20:22 5,8 C 5,0 C 2,2 C 97 % 1012,7 hPa 0,0 l/m 0 min 0 min 0 W/m 22,5 km/h (4 Bft) 95,74 %
10.01.2023 20:24 5,8 C 5,0 C 2,2 C 97 % 1012,7 hPa 0,0 l/m 0 min 0 min 0 W/m 22,5 km/h (4 Bft) 97,83 %
10.01.2023 20:26 5,8 C 5,0 C 2,2 C 97 % 1012,7 hPa 0,0 l/m 0 min 0 min 0 W/m 19,3 km/h (3 Bft) 97,87 %
10.01.2023 20:28 5,8 C 5,0 C 2,2 C 97 % 1012,7 hPa 0,0 l/m 0 min 0 min 0 W/m 16,1 km/h (3 Bft) 97,87 %
10.01.2023 20:30 5,8 C 5,0 C 2,2 C 97 % 1012,6 hPa 0,0 l/m 0 min 0 min 0 W/m 16,1 km/h (3 Bft) 97,87 %
10.01.2023 20:32 5,8 C 5,0 C 2,2 C 97 % 1012,5 hPa 0,0 l/m 0 min 0 min 0 W/m 16,1 km/h (3 Bft) 95,74 %
10.01.2023 20:34 5,9 C 5,0 C 2,2 C 97 % 1012,5 hPa 0,0 l/m 0 min 0 min 0 W/m 12,9 km/h (3 Bft) 97,87 %
10.01.2023 20:36 5,9 C 5,0 C 2,2 C 97 % 1012,5 hPa 0,2 l/m 0 min 0 min 0 W/m 16,1 km/h (3 Bft) 97,87 %
10.01.2023 20:38 5,9 C 5,0 C 2,2 C 97 % 1012,5 hPa 0,0 l/m 0 min 0 min 0 W/m 12,9 km/h (3 Bft) 93,48 %
10.01.2023 20:40 5,9 C 5,0 C 2,2 C 97 % 1012,5 hPa 0,0 l/m 0 min 0 min 0 W/m 19,3 km/h (3 Bft) 95,74 %
10.01.2023 20:42 5,9 C 5,0 C 2,2 C 97 % 1012,4 hPa 0,0 l/m 0 min 0 min 0 W/m 16,1 km/h (3 Bft) 93,62 %
10.01.2023 20:44 5,9 C 5,0 C 2,2 C 97 % 1012,4 hPa 0,0 l/m 0 min 0 min 0 W/m 12,9 km/h (3 Bft) 93,62 %
10.01.2023 20:46 5,9 C 5,0 C 2,2 C 97 % 1012,4 hPa 0,0 l/m 0 min 0 min 0 W/m 19,3 km/h (3 Bft) 93,62 %
10.01.2023 20:48 6,0 C 5,0 C 2,2 C 97 % 1012,5 hPa 0,0 l/m 0 min 0 min 0 W/m 16,1 km/h (3 Bft) 93,62 %
10.01.2023 20:50 6,0 C 5,6 C 2,2 C 97 % 1012,4 hPa 0,0 l/m 0 min 0 min 0 W/m 12,9 km/h (3 Bft) 97,87 %
10.01.2023 20:52 6,0 C 5,6 C 2,2 C 97 % 1012,3 hPa 0,0 l/m 0 min 0 min 0 W/m 16,1 km/h (3 Bft) 97,83 %
10.01.2023 20:54 6,0 C 5,6 C 2,2 C 97 % 1012,3 hPa 0,0 l/m 0 min 0 min 0 W/m 16,1 km/h (3 Bft) 95,74 %
10.01.2023 20:56 6,1 C 5,6 C 2,2 C 97 % 1012,3 hPa 0,0 l/m 0 min 0 min 0 W/m 19,3 km/h (3 Bft) 93,62 %
10.01.2023 20:58 6,1 C 5,6 C 2,8 C 97 % 1012,3 hPa 0,0 l/m 0 min 0 min 0 W/m 12,9 km/h (3 Bft) 95,74 %
10.01.2023 21:00 6,1 C 5,6 C 2,8 C 97 % 1012,3 hPa 0,0 l/m 0 min 0 min 0 W/m 22,5 km/h (4 Bft) 95,74 %
10.01.2023 21:02 6,1 C 5,6 C 2,8 C 97 % 1012,3 hPa 0,0 l/m 0 min 0 min 0 W/m 29,0 km/h (5 Bft) 95,74 %
10.01.2023 21:04 6,2 C 5,6 C 2,8 C 97 % 1012,4 hPa 0,0 l/m 0 min 0 min 0 W/m 12,9 km/h (3 Bft) 91,49 %
10.01.2023 21:06 6,2 C 5,6 C 2,8 C 97 % 1012,3 hPa 0,0 l/m 0 min 0 min 0 W/m 16,1 km/h (3 Bft) 93,48 %
10.01.2023 21:08 6,2 C 5,6 C 2,8 C 97 % 1012,3 hPa 0,0 l/m 0 min 0 min 0 W/m 16,1 km/h (3 Bft) 95,74 %
10.01.2023 21:10 6,3 C 5,6 C 2,8 C 97 % 1012,3 hPa 0,0 l/m 0 min 0 min 0 W/m 16,1 km/h (3 Bft) 97,87 %
10.01.2023 21:12 6,3 C 5,6 C 2,8 C 97 % 1012,3 hPa 0,0 l/m 0 min 0 min 0 W/m 16,1 km/h (3 Bft) 97,87 %
10.01.2023 21:14 6,3 C 5,6 C 2,8 C 97 % 1012,3 hPa 0,0 l/m 0 min 0 min 0 W/m 16,1 km/h (3 Bft) 97,87 %
10.01.2023 21:16 6,3 C 5,6 C 2,8 C 97 % 1012,3 hPa 0,0 l/m 0 min 0 min 0 W/m 6,4 km/h (2 Bft) 97,87 %
10.01.2023 21:18 6,3 C 5,6 C 2,8 C 97 % 1012,3 hPa 0,0 l/m 0 min 0 min 0 W/m 6,4 km/h (2 Bft) 97,87 %
10.01.2023 21:20 6,4 C 5,6 C 2,8 C 97 % 1012,3 hPa 0,0 l/m 0 min 0 min 0 W/m 19,3 km/h (3 Bft) 97,83 %
10.01.2023 21:22 6,4 C 5,6 C 2,8 C 97 % 1012,3 hPa 0,0 l/m 0 min 0 min 0 W/m 16,1 km/h (3 Bft) 97,87 %
10.01.2023 21:24 6,4 C 5,6 C 2,8 C 97 % 1012,3 hPa 0,0 l/m 0 min 0 min 0 W/m 16,1 km/h (3 Bft) 97,87 %
10.01.2023 21:26 6,4 C 5,6 C 2,8 C 97 % 1012,3 hPa 0,0 l/m 0 min 0 min 0 W/m 12,9 km/h (3 Bft) 95,74 %
10.01.2023 21:28 6,4 C 5,6 C 2,8 C 97 % 1012,2 hPa 0,0 l/m 0 min 0 min 0 W/m 16,1 km/h (3 Bft) 95,74 %
10.01.2023 21:30 6,5 C 5,6 C 2,8 C 97 % 1012,2 hPa 0,0 l/m 0 min 0 min 0 W/m 19,3 km/h (3 Bft) 97,87 %
10.01.2023 21:32 6,5 C 5,6 C 2,8 C 97 % 1012,2 hPa 0,0 l/m 0 min 0 min 0 W/m 19,3 km/h (3 Bft) 95,74 %
10.01.2023 21:34 6,5 C 5,6 C 2,8 C 97 % 1012,1 hPa 0,0 l/m 0 min 0 min 0 W/m 19,3 km/h (3 Bft) 97,83 %
10.01.2023 21:36 6,5 C 6,1 C 2,8 C 97 % 1012,2 hPa 0,0 l/m 0 min 0 min 0 W/m 12,9 km/h (3 Bft) 95,74 %
10.01.2023 21:38 6,5 C 6,1 C 2,8 C 97 % 1012,2 hPa 0,0 l/m 0 min 0 min 0 W/m 16,1 km/h (3 Bft) 95,74 %
10.01.2023 21:40 6,6 C 6,1 C 2,8 C 97 % 1012,2 hPa 0,0 l/m 0 min 0 min 0 W/m 16,1 km/h (3 Bft) 97,87 %
10.01.2023 21:42 6,6 C 6,1 C 2,8 C 97 % 1012,2 hPa 0,0 l/m 0 min 0 min 0 W/m 9,7 km/h (2 Bft) 100,00 %
10.01.2023 21:44 6,6 C 6,1 C 2,8 C 97 % 1012,1 hPa 0,0 l/m 0 min 0 min 0 W/m 19,3 km/h (3 Bft) 97,87 %
10.01.2023 21:46 6,6 C 6,1 C 2,8 C 97 % 1012,1 hPa 0,0 l/m 0 min 0 min 0 W/m 16,1 km/h (3 Bft) 100,00 %
10.01.2023 21:48 6,6 C 6,1 C 2,8 C 97 % 1012,1 hPa 0,0 l/m 0 min 0 min 0 W/m 16,1 km/h (3 Bft) 100,00 %
10.01.2023 21:50 6,6 C 6,1 C 2,8 C 97 % 1011,9 hPa 0,0 l/m 0 min 0 min 0 W/m 16,1 km/h (3 Bft) 100,00 %
10.01.2023 21:52 6,7 C 6,1 C 2,8 C 97 % 1011,8 hPa 0,0 l/m 0 min 0 min 0 W/m 19,3 km/h (3 Bft) 100,00 %
10.01.2023 21:54 6,7 C 6,1 C 2,8 C 97 % 1011,9 hPa 0,0 l/m 0 min 0 min 0 W/m 12,9 km/h (3 Bft) 100,00 %
10.01.2023 21:56 6,7 C 6,1 C 2,8 C 97 % 1011,9 hPa 0,0 l/m 0 min 0 min 0 W/m 19,3 km/h (3 Bft) 100,00 %
10.01.2023 21:58 6,7 C 6,1 C 2,8 C 97 % 1011,9 hPa 0,0 l/m 0 min 0 min 0 W/m 22,5 km/h (4 Bft) 97,22 %
10.01.2023 22:00 6,7 C 6,1 C 3,3 C 97 % 1011,8 hPa 0,0 l/m 0 min 0 min 0 W/m 6,4 km/h (2 Bft) 100,00 %
10.01.2023 22:02 6,7 C 6,1 C 3,3 C 97 % 1011,8 hPa 0,0 l/m 0 min 0 min 0 W/m 12,9 km/h (3 Bft) 97,87 %
10.01.2023 22:04 6,7 C 6,1 C 3,3 C 97 % 1011,9 hPa 0,0 l/m 0 min 0 min 0 W/m 6,4 km/h (2 Bft) 100,00 %
10.01.2023 22:06 6,8 C 6,1 C 3,3 C 97 % 1011,8 hPa 0,0 l/m 0 min 0 min 0 W/m 19,3 km/h (3 Bft) 100,00 %
10.01.2023 22:08 6,8 C 6,1 C 3,3 C 97 % 1011,8 hPa 0,0 l/m 0 min 0 min 0 W/m 12,9 km/h (3 Bft) 100,00 %
10.01.2023 22:10 6,8 C 6,1 C 3,3 C 97 % 1011,7 hPa 0,0 l/m 0 min 0 min 0 W/m 19,3 km/h (3 Bft) 100,00 %
10.01.2023 22:12 6,8 C 6,1 C 3,3 C 97 % 1011,7 hPa 0,0 l/m 0 min 0 min 0 W/m 12,9 km/h (3 Bft) 100,00 %
10.01.2023 22:14 6,8 C 6,1 C 3,3 C 97 % 1011,8 hPa 0,0 l/m 0 min 0 min 0 W/m 9,7 km/h (2 Bft) 100,00 %
10.01.2023 22:16 6,8 C 6,1 C 3,3 C 97 % 1011,7 hPa 0,0 l/m 0 min 0 min 0 W/m 22,5 km/h (4 Bft) 100,00 %
10.01.2023 22:18 6,8 C 6,1 C 3,3 C 97 % 1011,7 hPa 0,0 l/m 0 min 0 min 0 W/m 19,3 km/h (3 Bft) 100,00 %
10.01.2023 22:20 6,9 C 6,7 C 3,3 C 97 % 1011,7 hPa 0,0 l/m 0 min 0 min 0 W/m 12,9 km/h (3 Bft) 100,00 %
10.01.2023 22:22 6,9 C 6,7 C 3,3 C 97 % 1011,6 hPa 0,0 l/m 0 min 0 min 0 W/m 16,1 km/h (3 Bft) 97,87 %
10.01.2023 22:24 6,9 C 6,7 C 3,3 C 97 % 1011,6 hPa 0,0 l/m 0 min 0 min 0 W/m 16,1 km/h (3 Bft) 100,00 %
10.01.2023 22:26 6,9 C 6,7 C 3,3 C 97 % 1011,7 hPa 0,0 l/m 0 min 0 min 0 W/m 16,1 km/h (3 Bft) 100,00 %
10.01.2023 22:28 7,0 C 6,7 C 3,3 C 97 % 1011,7 hPa 0,0 l/m 0 min 0 min 0 W/m 19,3 km/h (3 Bft) 100,00 %
10.01.2023 22:30 7,0 C 6,7 C 3,3 C 97 % 1011,6 hPa 0,0 l/m 0 min 0 min 0 W/m 16,1 km/h (3 Bft) 97,83 %
10.01.2023 22:32 7,1 C 6,7 C 3,3 C 97 % 1011,6 hPa 0,0 l/m 0 min 0 min 0 W/m 16,1 km/h (3 Bft) 97,87 %
10.01.2023 22:34 7,1 C 6,7 C 3,3 C 97 % 1011,6 hPa 0,0 l/m 0 min 0 min 0 W/m 19,3 km/h (3 Bft) 97,87 %
10.01.2023 22:36 7,1 C 6,7 C 3,3 C 97 % 1011,5 hPa 0,0 l/m 0 min 0 min 0 W/m 19,3 km/h (3 Bft) 97,87 %
10.01.2023 22:38 7,1 C 6,7 C 3,3 C 97 % 1011,5 hPa 0,0 l/m 0 min 0 min 0 W/m 9,7 km/h (2 Bft) 80,85 %
10.01.2023 22:40 7,1 C 6,7 C 3,3 C 97 % 1011,5 hPa 0,0 l/m 0 min 0 min 0 W/m 12,9 km/h (3 Bft) 69,05 %
10.01.2023 22:42 7,2 C 6,7 C 3,3 C 97 % 1011,5 hPa 0,0 l/m 0 min 0 min 0 W/m 19,3 km/h (3 Bft) 97,87 %
10.01.2023 22:44 7,2 C 6,7 C 3,3 C 97 % 1011,5 hPa 0,0 l/m 0 min 0 min 0 W/m 12,9 km/h (3 Bft) 97,83 %
10.01.2023 22:46 7,2 C 6,7 C 3,3 C 96 % 1011,4 hPa 0,0 l/m 0 min 0 min 0 W/m 22,5 km/h (4 Bft) 95,74 %
10.01.2023 22:48 7,2 C 6,7 C 3,3 C 96 % 1011,4 hPa 0,0 l/m 0 min 0 min 0 W/m 16,1 km/h (3 Bft) 97,87 %
10.01.2023 22:50 7,2 C 6,7 C 3,3 C 96 % 1011,4 hPa 0,0 l/m 0 min 0 min 0 W/m 22,5 km/h (4 Bft) 97,87 %
10.01.2023 22:52 7,3 C 6,7 C 3,3 C 96 % 1011,4 hPa 0,0 l/m 0 min 0 min 0 W/m 16,1 km/h (3 Bft) 95,74 %
10.01.2023 22:54 7,3 C 6,7 C 3,3 C 97 % 1011,3 hPa 0,0 l/m 0 min 2 min 0 W/m 19,3 km/h (3 Bft) 97,87 %
10.01.2023 22:56 7,3 C 6,7 C 3,3 C 96 % 1011,3 hPa 0,0 l/m 0 min 2 min 0 W/m 12,9 km/h (3 Bft) 95,74 %
10.01.2023 22:58 7,3 C 6,7 C 3,3 C 96 % 1011,3 hPa 0,0 l/m 0 min 0 min 0 W/m 16,1 km/h (3 Bft) 95,65 %
10.01.2023 23:00 7,3 C 6,7 C 3,3 C 96 % 1011,3 hPa 0,0 l/m 0 min 0 min 0 W/m 12,9 km/h (3 Bft) 95,74 %
10.01.2023 23:02 7,3 C 6,7 C 3,3 C 96 % 1011,3 hPa 0,0 l/m 0 min 2 min 0 W/m 25,7 km/h (4 Bft) 95,74 %
10.01.2023 23:04 7,3 C 6,7 C 3,3 C 96 % 1011,3 hPa 0,0 l/m 0 min 0 min 0 W/m 22,5 km/h (4 Bft) 95,74 %
10.01.2023 23:06 7,3 C 6,7 C 3,3 C 96 % 1011,3 hPa 0,0 l/m 0 min 0 min 0 W/m 16,1 km/h (3 Bft) 95,74 %
10.01.2023 23:08 7,3 C 6,7 C 3,3 C 96 % 1011,2 hPa 0,0 l/m 0 min 0 min 0 W/m 12,9 km/h (3 Bft) 97,87 %
10.01.2023 23:10 7,3 C 6,7 C 3,3 C 96 % 1011,2 hPa 0,0 l/m 0 min 0 min 0 W/m 12,9 km/h (3 Bft) 95,74 %
10.01.2023 23:12 7,3 C 6,7 C 3,3 C 96 % 1011,2 hPa 0,0 l/m 0 min 0 min 0 W/m 12,9 km/h (3 Bft) 95,65 %
10.01.2023 23:14 7,3 C 6,7 C 3,3 C 96 % 1011,2 hPa 0,0 l/m 0 min 2 min 0 W/m 19,3 km/h (3 Bft) 97,87 %
10.01.2023 23:16 7,3 C 6,7 C 3,3 C 96 % 1011,2 hPa 0,0 l/m 0 min 2 min 0 W/m 19,3 km/h (3 Bft) 95,74 %
10.01.2023 23:18 7,3 C 6,7 C 3,3 C 96 % 1011,2 hPa 0,0 l/m 0 min 2 min 0 W/m 16,1 km/h (3 Bft) 97,87 %
10.01.2023 23:20 7,3 C 6,7 C 3,3 C 96 % 1011,2 hPa 0,0 l/m 0 min 2 min 0 W/m 25,7 km/h (4 Bft) 95,74 %
10.01.2023 23:22 7,3 C 6,7 C 3,3 C 96 % 1011,2 hPa 0,2 l/m 0 min 0 min 0 W/m 16,1 km/h (3 Bft) 97,87 %
10.01.2023 23:24 7,3 C 6,7 C 3,3 C 96 % 1011,1 hPa 0,0 l/m 0 min 0 min 0 W/m 16,1 km/h (3 Bft) 93,62 %
10.01.2023 23:26 7,3 C 6,7 C 3,3 C 96 % 1011,1 hPa 0,0 l/m 0 min 0 min 0 W/m 16,1 km/h (3 Bft) 93,48 %
10.01.2023 23:28 7,3 C 6,7 C 3,3 C 96 % 1011,1 hPa 0,0 l/m 0 min 0 min 0 W/m 16,1 km/h (3 Bft) 93,62 %
10.01.2023 23:30 7,3 C 6,7 C 3,3 C 96 % 1011,1 hPa 0,0 l/m 0 min 0 min 0 W/m 12,9 km/h (3 Bft) 93,62 %
10.01.2023 23:32 7,3 C 6,7 C 3,3 C 96 % 1011,1 hPa 0,0 l/m 0 min 0 min 0 W/m 16,1 km/h (3 Bft) 95,74 %
10.01.2023 23:34 7,3 C 6,7 C 3,3 C 96 % 1011,0 hPa 0,0 l/m 0 min 0 min 0 W/m 16,1 km/h (3 Bft) 95,74 %
10.01.2023 23:36 7,3 C 6,7 C 3,3 C 96 % 1011,1 hPa 0,0 l/m 0 min 0 min 0 W/m 16,1 km/h (3 Bft) 93,62 %
10.01.2023 23:38 7,3 C 6,7 C 3,3 C 96 % 1011,0 hPa 0,2 l/m 0 min 0 min 0 W/m 16,1 km/h (3 Bft) 93,62 %
10.01.2023 23:40 7,3 C 6,7 C 3,3 C 96 % 1011,0 hPa 0,0 l/m 0 min 0 min 0 W/m 12,9 km/h (3 Bft) 95,65 %
10.01.2023 23:42 7,3 C 6,7 C 3,3 C 96 % 1011,0 hPa 0,0 l/m 0 min 0 min 0 W/m 9,7 km/h (2 Bft) 91,49 %
10.01.2023 23:44 7,3 C 6,7 C 3,9 C 96 % 1011,0 hPa 0,0 l/m 0 min 0 min 0 W/m 12,9 km/h (3 Bft) 97,87 %
10.01.2023 23:46 7,3 C 6,7 C 3,9 C 96 % 1010,9 hPa 0,0 l/m 0 min 0 min 0 W/m 12,9 km/h (3 Bft) 95,74 %
10.01.2023 23:48 7,3 C 6,7 C 3,9 C 96 % 1010,9 hPa 0,0 l/m 0 min 0 min 0 W/m 22,5 km/h (4 Bft) 95,74 %
10.01.2023 23:50 7,3 C 6,7 C 3,9 C 96 % 1010,9 hPa 0,0 l/m 0 min 0 min 0 W/m 12,9 km/h (3 Bft) 97,87 %
10.01.2023 23:52 7,3 C 6,7 C 3,9 C 96 % 1010,9 hPa 0,0 l/m 0 min 0 min 0 W/m 16,1 km/h (3 Bft) 97,87 %
10.01.2023 23:54 7,3 C 6,7 C 3,9 C 96 % 1010,9 hPa 0,0 l/m 0 min 0 min 0 W/m 16,1 km/h (3 Bft) 95,65 %
10.01.2023 23:56 7,3 C 6,7 C 3,9 C 96 % 1010,9 hPa 0,0 l/m 0 min 0 min 0 W/m 19,3 km/h (3 Bft) 93,62 %
10.01.2023 23:58 7,3 C 6,7 C 3,9 C 96 % 1011,0 hPa 0,0 l/m 0 min 0 min 0 W/m 12,9 km/h (3 Bft) 52,27 %
_ Min-Zeit 08:54 04:36 08:52 14:58 23:46 - - - - 00:02 00:02
Minimum _ 4,1 C 3,3 C 0,6 C 78 % 1010,9 hPa - - - - 3,2 km/h (1 Bft) 5,00 %
_ Max-Zeit 14:34 12:52 12:38 20:06 10:46 16:30 10:12 18:07 10:26 14:40 00:07
Maximum _ 8,3 C 8,3 C 4,4 C 97 % 1019,5 hPa 0,2 l/m 2 min 3 min 199 W/m 45,1 km/h
SW (6 Bft)
100,00 %
Durchschnitt _ 6,0 C 5,4 C 2,4 C 91 % 1015,6 hPa #5,6 l/m #1:44 h #2:44 h 88 W/m 16,3 km/h (3 Bft) 96,50 %
© 2023 W. Hausmann